Time,TemperatureF,DewpointF,PressureIn,WindDirection,WindDirectionDegrees,WindSpeedMPH,WindSpeedGustMPH,Humidity,HourlyPrecipIn,Conditions,Clouds,dailyrainin,SolarRadiationWatts/m^2,SoftwareType,DateUTC
2013-06-02 00:02:00,50.3,39.8,29.74,NNW,346,2.0,6.0,67,0.00,,,0.00,0,Wunderground v.1.15,2013-06-02 05:02:00,
2013-06-02 00:03:00,50.2,39.7,29.73,NNW,346,4.0,6.0,67,0.00,,,0.00,0,Wunderground v.1.15,2013-06-02 05:03:00,
2013-06-02 00:07:00,50.2,39.3,29.73,NNW,334,1.0,9.0,66,0.00,,,0.00,0,Wunderground v.1.15,2013-06-02 05:07:00,
2013-06-02 00:08:00,50.2,39.3,29.73,NNW,334,3.0,9.0,66,0.00,,,0.00,0,Wunderground v.1.15,2013-06-02 05:08:00,
2013-06-02 00:12:00,50.2,39.3,29.73,NNE,22,4.0,8.0,66,0.00,,,0.00,0,Wunderground v.1.15,2013-06-02 05:12:00,
2013-06-02 00:13:00,50.3,39.0,29.73,North,0,7.0,10.0,65,0.00,,,0.00,0,Wunderground v.1.15,2013-06-02 05:13:00,
2013-06-02 00:17:00,50.2,38.9,29.73,NNW,341,2.0,10.0,65,0.00,,,0.00,0,Wunderground v.1.15,2013-06-02 05:17:00,
2013-06-02 00:18:00,50.3,39.0,29.73,NNW,341,0.0,10.0,65,0.00,,,0.00,0,Wunderground v.1.15,2013-06-02 05:18:00,
2013-06-02 00:22:00,50.3,39.0,29.73,North,351,4.0,8.0,65,0.00,,,0.00,0,Wunderground v.1.15,2013-06-02 05:22:00,
2013-06-02 00:23:00,50.2,38.9,29.73,North,351,4.0,8.0,65,0.00,,,0.00,0,Wunderground v.1.15,2013-06-02 05:23:00,
2013-06-02 00:27:00,50.2,38.9,29.74,North,0,0.0,11.0,65,0.00,,,0.00,0,Wunderground v.1.15,2013-06-02 05:27:00,
2013-06-02 00:28:00,50.2,38.9,29.74,North,11,8.0,11.0,65,0.00,,,0.00,0,Wunderground v.1.15,2013-06-02 05:28:00,
2013-06-02 00:33:00,50.2,38.9,29.74,North,8,2.0,6.0,65,0.00,,,0.00,0,Wunderground v.1.15,2013-06-02 05:33:00,
2013-06-02 00:38:00,50.1,38.8,29.74,North,0,4.0,6.0,65,0.00,,,0.00,0,Wunderground v.1.15,2013-06-02 05:38:00,
2013-06-02 00:43:00,50.1,38.4,29.74,NW,320,1.0,6.0,64,0.00,,,0.00,0,Wunderground v.1.15,2013-06-02 05:43:00,
2013-06-02 00:48:00,50.2,38.9,29.74,NW,312,0.0,6.0,65,0.00,,,0.00,0,Wunderground v.1.15,2013-06-02 05:48:00,
2013-06-02 00:53:00,50.2,38.9,29.75,NNW,336,0.0,9.0,65,0.00,,,0.00,0,Wunderground v.1.15,2013-06-02 05:53:00,
2013-06-02 00:58:00,50.2,38.5,29.74,North,0,3.0,11.0,64,0.00,,,0.00,0,Wunderground v.1.15,2013-06-02 05:58:00,
2013-06-02 01:03:00,50.1,38.0,29.75,WNW,296,4.0,9.0,63,0.00,,,0.00,0,Wunderground v.1.15,2013-06-02 06:03:00,
2013-06-02 01:04:00,50.1,37.6,29.74,WNW,297,2.0,9.0,62,0.00,,,0.00,0,Wunderground v.1.15,2013-06-02 06:04:00,
2013-06-02 01:08:00,50.0,37.1,29.75,NW,304,0.0,9.0,61,0.00,,,0.00,0,Wunderground v.1.15,2013-06-02 06:08:00,
2013-06-02 01:09:00,50.0,37.5,29.75,NW,304,2.0,9.0,62,0.00,,,0.00,0,Wunderground v.1.15,2013-06-02 06:09:00,
2013-06-02 01:13:00,49.9,37.4,29.75,WNW,301,10.0,12.0,62,0.00,,,0.00,0,Wunderground v.1.15,2013-06-02 06:13:00,
2013-06-02 01:14:00,49.9,37.4,29.75,WNW,299,1.0,12.0,62,0.00,,,0.00,0,Wunderground v.1.15,2013-06-02 06:14:00,
2013-06-02 01:18:00,49.8,37.3,29.75,North,355,0.0,12.0,62,0.00,,,0.00,0,Wunderground v.1.15,2013-06-02 06:18:00,
2013-06-02 01:19:00,49.8,37.3,29.75,North,356,1.0,12.0,62,0.00,,,0.00,0,Wunderground v.1.15,2013-06-02 06:19:00,
2013-06-02 01:20:00,49.8,37.3,29.75,North,355,2.0,2.0,62,0.00,,,0.00,0,Wunderground v.1.15,2013-06-02 06:20:00,
2013-06-02 01:23:00,49.8,37.7,29.75,NW,321,6.0,8.0,63,0.00,,,0.00,0,Wunderground v.1.15,2013-06-02 06:23:00,
2013-06-02 01:24:00,49.8,37.7,29.75,NW,324,5.0,8.0,63,0.00,,,0.00,0,Wunderground v.1.15,2013-06-02 06:24:00,
2013-06-02 01:25:00,49.8,37.7,29.75,North,354,4.0,11.0,63,0.00,,,0.00,0,Wunderground v.1.15,2013-06-02 06:25:00,
2013-06-02 01:28:00,49.8,37.7,29.75,North,353,0.0,11.0,63,0.00,,,0.00,0,Wunderground v.1.15,2013-06-02 06:28:00,
2013-06-02 01:29:00,49.8,37.7,29.76,North,353,1.0,11.0,63,0.00,,,0.00,0,Wunderground v.1.15,2013-06-02 06:29:00,
2013-06-02 01:30:00,49.7,37.6,29.76,North,0,2.0,6.0,63,0.00,,,0.00,0,Wunderground v.1.15,2013-06-02 06:30:00,
2013-06-02 01:34:00,49.7,37.6,29.75,North,0,0.0,6.0,63,0.00,,,0.00,0,Wunderground v.1.15,2013-06-02 06:34:00,
2013-06-02 01:35:00,49.7,37.6,29.76,North,0,0.0,6.0,63,0.00,,,0.00,0,Wunderground v.1.15,2013-06-02 06:35:00,
2013-06-02 01:39:00,49.6,37.5,29.75,NNW,346,0.0,9.0,63,0.00,,,0.00,0,Wunderground v.1.15,2013-06-02 06:39:00,
2013-06-02 01:40:00,49.6,37.5,29.76,NNW,346,2.0,9.0,63,0.00,,,0.00,0,Wunderground v.1.15,2013-06-02 06:40:00,
2013-06-02 01:44:00,49.5,37.0,29.75,NNW,333,2.0,7.0,62,0.00,,,0.00,0,Wunderground v.1.15,2013-06-02 06:44:00,
2013-06-02 01:45:00,49.5,37.0,29.76,NNW,333,1.0,7.0,62,0.00,,,0.00,0,Wunderground v.1.15,2013-06-02 06:45:00,
2013-06-02 01:46:00,49.5,37.0,29.75,North,5,6.0,7.0,62,0.00,,,0.00,0,Wunderground v.1.15,2013-06-02 06:46:00,
2013-06-02 01:49:00,49.4,36.5,29.75,NE,56,6.0,12.0,61,0.00,,,0.00,0,Wunderground v.1.15,2013-06-02 06:49:00,
2013-06-02 01:50:00,49.4,36.5,29.76,NNE,17,5.0,5.0,61,0.00,,,0.00,0,Wunderground v.1.15,2013-06-02 06:50:00,
2013-06-02 01:51:00,49.4,36.5,29.76,North,11,5.0,5.0,61,0.00,,,0.00,0,Wunderground v.1.15,2013-06-02 06:51:00,
2013-06-02 01:54:00,49.3,36.4,29.75,North,11,0.0,7.0,61,0.00,,,0.00,0,Wunderground v.1.15,2013-06-02 06:54:00,
2013-06-02 01:55:00,49.3,36.4,29.76,North,11,1.0,7.0,61,0.00,,,0.00,0,Wunderground v.1.15,2013-06-02 06:55:00,
2013-06-02 01:56:00,49.2,36.3,29.75,North,11,2.0,7.0,61,0.00,,,0.00,0,Wunderground v.1.15,2013-06-02 06:56:00,
2013-06-02 01:59:00,49.1,35.8,29.75,North,351,5.0,9.0,60,0.00,,,0.00,0,Wunderground v.1.15,2013-06-02 06:59:00,
2013-06-02 02:00:00,49.2,35.9,29.75,North,353,3.0,9.0,60,0.00,,,0.00,0,Wunderground v.1.15,2013-06-02 07:00:00,
2013-06-02 02:01:00,49.1,35.8,29.75,NNW,347,3.0,7.0,60,0.00,,,0.00,0,Wunderground v.1.15,2013-06-02 07:01:00,
2013-06-02 02:04:00,49.1,35.8,29.76,NE,50,3.0,9.0,60,0.00,,,0.00,0,Wunderground v.1.15,2013-06-02 07:04:00,
2013-06-02 02:05:00,49.1,35.8,29.76,NE,50,3.0,9.0,60,0.00,,,0.00,0,Wunderground v.1.15,2013-06-02 07:05:00,
2013-06-02 02:06:00,49.1,35.8,29.76,NNE,18,0.0,9.0,60,0.00,,,0.00,0,Wunderground v.1.15,2013-06-02 07:06:00,
2013-06-02 02:09:00,49.1,35.8,29.76,North,10,6.0,9.0,60,0.00,,,0.00,0,Wunderground v.1.15,2013-06-02 07:09:00,
2013-06-02 02:10:00,49.1,35.8,29.76,NNE,15,6.0,9.0,60,0.00,,,0.00,0,Wunderground v.1.15,2013-06-02 07:10:00,
2013-06-02 02:11:00,49.1,35.4,29.76,North,0,3.0,9.0,59,0.00,,,0.00,0,Wunderground v.1.15,2013-06-02 07:11:00,
2013-06-02 02:14:00,49.1,35.8,29.76,North,355,5.0,14.0,60,0.00,,,0.00,0,Wunderground v.1.15,2013-06-02 07:14:00,
2013-06-02 02:15:00,49.0,35.7,29.76,North,355,2.0,14.0,60,0.00,,,0.00,0,Wunderground v.1.15,2013-06-02 07:15:00,
2013-06-02 02:16:00,49.0,35.7,29.76,North,355,2.0,14.0,60,0.00,,,0.00,0,Wunderground v.1.15,2013-06-02 07:16:00,
2013-06-02 02:19:00,49.0,35.7,29.77,NNE,32,0.0,14.0,60,0.00,,,0.00,0,Wunderground v.1.15,2013-06-02 07:19:00,
2013-06-02 02:20:00,49.0,35.7,29.76,NNE,30,4.0,5.0,60,0.00,,,0.00,0,Wunderground v.1.15,2013-06-02 07:20:00,
2013-06-02 02:21:00,49.0,35.7,29.76,NE,47,5.0,8.0,60,0.00,,,0.00,0,Wunderground v.1.15,2013-06-02 07:21:00,
2013-06-02 02:24:00,49.0,35.7,29.77,NE,44,2.0,8.0,60,0.00,,,0.00,0,Wunderground v.1.15,2013-06-02 07:24:00,
2013-06-02 02:25:00,49.0,35.7,29.77,NE,37,2.0,8.0,60,0.00,,,0.00,0,Wunderground v.1.15,2013-06-02 07:25:00,
2013-06-02 02:26:00,49.0,35.7,29.77,NE,46,2.0,8.0,60,0.00,,,0.00,0,Wunderground v.1.15,2013-06-02 07:26:00,
2013-06-02 02:30:00,48.9,36.0,29.77,NE,44,5.0,8.0,61,0.00,,,0.00,0,Wunderground v.1.15,2013-06-02 07:30:00,
2013-06-02 02:31:00,48.8,35.9,29.76,North,0,0.0,7.0,61,0.00,,,0.00,0,Wunderground v.1.15,2013-06-02 07:31:00,
2013-06-02 02:35:00,48.8,35.9,29.77,North,9,2.0,7.0,61,0.00,,,0.00,0,Wunderground v.1.15,2013-06-02 07:35:00,
2013-06-02 02:36:00,48.8,35.9,29.77,NNW,343,7.0,8.0,61,0.00,,,0.00,0,Wunderground v.1.15,2013-06-02 07:36:00,
2013-06-02 02:37:00,48.7,35.8,29.76,North,5,4.0,8.0,61,0.00,,,0.00,0,Wunderground v.1.15,2013-06-02 07:37:00,
2013-06-02 02:40:00,48.7,35.8,29.77,NNE,21,2.0,8.0,61,0.00,,,0.00,0,Wunderground v.1.15,2013-06-02 07:40:00,
2013-06-02 02:41:00,48.7,35.8,29.77,NNE,19,3.0,6.0,61,0.00,,,0.00,0,Wunderground v.1.15,2013-06-02 07:41:00,
2013-06-02 02:42:00,48.7,36.3,29.76,NNW,333,3.0,8.0,62,0.00,,,0.00,0,Wunderground v.1.15,2013-06-02 07:42:00,
2013-06-02 02:45:00,48.6,36.2,29.76,NNW,336,0.0,8.0,62,0.00,,,0.00,0,Wunderground v.1.15,2013-06-02 07:45:00,
2013-06-02 02:46:00,48.6,36.2,29.77,NNW,336,0.0,8.0,62,0.00,,,0.00,0,Wunderground v.1.15,2013-06-02 07:46:00,
2013-06-02 02:47:00,48.6,36.2,29.76,NNW,336,5.0,8.0,62,0.00,,,0.00,0,Wunderground v.1.15,2013-06-02 07:47:00,
2013-06-02 02:50:00,48.6,36.2,29.76,NNW,336,3.0,3.0,62,0.00,,,0.00,0,Wunderground v.1.15,2013-06-02 07:50:00,
2013-06-02 02:51:00,48.6,36.2,29.76,NNW,330,1.0,7.0,62,0.00,,,0.00,0,Wunderground v.1.15,2013-06-02 07:51:00,
2013-06-02 02:52:00,48.6,36.2,29.77,NNW,330,2.0,7.0,62,0.00,,,0.00,0,Wunderground v.1.15,2013-06-02 07:52:00,
2013-06-02 02:55:00,48.6,36.2,29.76,NE,56,5.0,8.0,62,0.00,,,0.00,0,Wunderground v.1.15,2013-06-02 07:55:00,
2013-06-02 02:56:00,48.6,36.2,29.77,NE,46,3.0,8.0,62,0.00,,,0.00,0,Wunderground v.1.15,2013-06-02 07:56:00,
2013-06-02 02:57:00,48.6,36.2,29.77,NE,46,2.0,8.0,62,0.00,,,0.00,0,Wunderground v.1.15,2013-06-02 07:57:00,
2013-06-02 03:00:00,48.6,36.2,29.77,NNE,12,4.0,4.0,62,0.00,,,0.00,0,Wunderground v.1.15,2013-06-02 08:00:00,
2013-06-02 03:01:00,48.6,36.2,29.77,North,5,6.0,7.0,62,0.00,,,0.00,0,Wunderground v.1.15,2013-06-02 08:01:00,
2013-06-02 03:02:00,48.6,36.6,29.77,North,6,1.0,8.0,63,0.00,,,0.00,0,Wunderground v.1.15,2013-06-02 08:02:00,
2013-06-02 03:03:00,48.6,36.2,29.77,NNW,338,3.0,8.0,62,0.00,,,0.00,0,Wunderground v.1.15,2013-06-02 08:03:00,
2013-06-02 03:05:00,48.6,36.2,29.76,NNW,332,1.0,8.0,62,0.00,,,0.00,0,Wunderground v.1.15,2013-06-02 08:05:00,
2013-06-02 03:06:00,48.6,36.2,29.77,NNW,332,0.0,8.0,62,0.00,,,0.00,0,Wunderground v.1.15,2013-06-02 08:06:00,
2013-06-02 03:07:00,48.6,36.2,29.77,NNW,332,0.0,8.0,62,0.00,,,0.00,0,Wunderground v.1.15,2013-06-02 08:07:00,
2013-06-02 03:08:00,48.6,36.6,29.77,NNW,332,0.0,8.0,63,0.00,,,0.00,0,Wunderground v.1.15,2013-06-02 08:08:00,
2013-06-02 03:10:00,48.6,36.2,29.77,NNW,331,3.0,5.0,62,0.00,,,0.00,0,Wunderground v.1.15,2013-06-02 08:10:00,
2013-06-02 03:12:00,48.6,36.6,29.77,NNW,329,2.0,5.0,63,0.00,,,0.00,0,Wunderground v.1.15,2013-06-02 08:12:00,
2013-06-02 03:13:00,48.6,36.6,29.77,NNW,329,1.0,5.0,63,0.00,,,0.00,0,Wunderground v.1.15,2013-06-02 08:13:00,
2013-06-02 03:16:00,48.6,36.6,29.77,NNE,13,0.0,5.0,63,0.00,,,0.00,0,Wunderground v.1.15,2013-06-02 08:16:00,
2013-06-02 03:17:00,48.6,36.6,29.77,NNE,13,0.0,5.0,63,0.00,,,0.00,0,Wunderground v.1.15,2013-06-02 08:17:00,
2013-06-02 03:18:00,48.6,36.6,29.77,North,8,3.0,5.0,63,0.00,,,0.00,0,Wunderground v.1.15,2013-06-02 08:18:00,
2013-06-02 03:21:00,48.6,36.6,29.77,North,8,0.0,0.0,63,0.00,,,0.00,0,Wunderground v.1.15,2013-06-02 08:21:00,
2013-06-02 03:22:00,48.6,36.6,29.77,North,7,1.0,2.0,63,0.00,,,0.00,0,Wunderground v.1.15,2013-06-02 08:22:00,
2013-06-02 03:23:00,48.5,36.5,29.77,North,7,1.0,2.0,63,0.00,,,0.00,0,Wunderground v.1.15,2013-06-02 08:23:00,
2013-06-02 03:24:00,48.5,36.5,29.78,North,2,2.0,4.0,63,0.00,,,0.00,0,Wunderground v.1.15,2013-06-02 08:24:00,
2013-06-02 03:26:00,48.5,36.5,29.77,North,2,0.0,4.0,63,0.00,,,0.00,0,Wunderground v.1.15,2013-06-02 08:26:00,
2013-06-02 03:27:00,48.5,36.5,29.77,North,2,0.0,4.0,63,0.00,,,0.00,0,Wunderground v.1.15,2013-06-02 08:27:00,
2013-06-02 03:28:00,48.5,36.5,29.77,North,2,0.0,4.0,63,0.00,,,0.00,0,Wunderground v.1.15,2013-06-02 08:28:00,
2013-06-02 03:29:00,48.5,36.5,29.77,North,2,2.0,4.0,63,0.00,,,0.00,0,Wunderground v.1.15,2013-06-02 08:29:00,
2013-06-02 03:31:00,48.5,36.5,29.78,North,2,2.0,2.0,63,0.00,,,0.00,0,Wunderground v.1.15,2013-06-02 08:31:00,
2013-06-02 03:33:00,48.5,36.5,29.78,North,3,0.0,4.0,63,0.00,,,0.00,0,Wunderground v.1.15,2013-06-02 08:33:00,
2013-06-02 03:34:00,48.5,36.5,29.77,North,3,0.0,4.0,63,0.00,,,0.00,0,Wunderground v.1.15,2013-06-02 08:34:00,
2013-06-02 03:36:00,48.5,36.5,29.77,NNW,346,4.0,6.0,63,0.00,,,0.00,0,Wunderground v.1.15,2013-06-02 08:36:00,
2013-06-02 03:38:00,48.5,36.5,29.77,NNW,345,2.0,6.0,63,0.00,,,0.00,0,Wunderground v.1.15,2013-06-02 08:38:00,
2013-06-02 03:39:00,48.5,36.5,29.77,NNW,345,0.0,6.0,63,0.00,,,0.00,0,Wunderground v.1.15,2013-06-02 08:39:00,
2013-06-02 03:41:00,48.5,36.5,29.77,NNW,345,0.0,2.0,63,0.00,,,0.00,0,Wunderground v.1.15,2013-06-02 08:41:00,
2013-06-02 03:43:00,48.5,36.5,29.77,NNW,345,0.0,3.0,63,0.00,,,0.00,0,Wunderground v.1.15,2013-06-02 08:43:00,
2013-06-02 03:44:00,48.5,36.5,29.77,NNW,345,0.0,3.0,63,0.00,,,0.00,0,Wunderground v.1.15,2013-06-02 08:44:00,
2013-06-02 03:46:00,48.5,36.5,29.77,NNW,345,1.0,4.0,63,0.00,,,0.00,0,Wunderground v.1.15,2013-06-02 08:46:00,
2013-06-02 03:48:00,48.5,36.5,29.77,NNW,345,2.0,5.0,63,0.00,,,0.00,0,Wunderground v.1.15,2013-06-02 08:48:00,
2013-06-02 03:49:00,48.5,36.5,29.77,NNW,345,0.0,5.0,63,0.00,,,0.00,0,Wunderground v.1.15,2013-06-02 08:49:00,
2013-06-02 03:51:00,48.5,36.9,29.78,NNW,345,1.0,6.0,64,0.00,,,0.00,0,Wunderground v.1.15,2013-06-02 08:51:00,
2013-06-02 03:53:00,48.5,36.9,29.77,NNW,345,0.0,6.0,64,0.00,,,0.00,0,Wunderground v.1.15,2013-06-02 08:53:00,
2013-06-02 03:54:00,48.5,36.9,29.77,NNW,345,0.0,6.0,64,0.00,,,0.00,0,Wunderground v.1.15,2013-06-02 08:54:00,
2013-06-02 03:56:00,48.5,36.9,29.77,NNW,345,0.0,6.0,64,0.00,,,0.00,0,Wunderground v.1.15,2013-06-02 08:56:00,
2013-06-02 03:58:00,48.6,37.0,29.77,NNW,345,0.0,6.0,64,0.00,,,0.00,0,Wunderground v.1.15,2013-06-02 08:58:00,
2013-06-02 03:59:00,48.5,36.9,29.77,NNW,345,0.0,6.0,64,0.00,,,0.00,0,Wunderground v.1.15,2013-06-02 08:59:00,
2013-06-02 04:02:00,48.5,36.9,29.78,NNW,345,3.0,4.0,64,0.00,,,0.00,0,Wunderground v.1.15,2013-06-02 09:02:00,
2013-06-02 04:03:00,48.5,36.9,29.78,NNW,345,0.0,5.0,64,0.00,,,0.00,0,Wunderground v.1.15,2013-06-02 09:03:00,
2013-06-02 04:04:00,48.6,37.0,29.78,NNW,345,0.0,5.0,64,0.00,,,0.00,0,Wunderground v.1.15,2013-06-02 09:04:00,
2013-06-02 04:07:00,48.6,37.4,29.78,NNW,346,0.0,5.0,65,0.00,,,0.00,0,Wunderground v.1.15,2013-06-02 09:07:00,
2013-06-02 04:08:00,48.6,37.4,29.78,NNW,346,0.0,5.0,65,0.00,,,0.00,0,Wunderground v.1.15,2013-06-02 09:08:00,
2013-06-02 04:09:00,48.6,37.4,29.78,NNW,346,1.0,5.0,65,0.00,,,0.00,0,Wunderground v.1.15,2013-06-02 09:09:00,
2013-06-02 04:10:00,48.6,37.4,29.79,NNW,346,0.0,5.0,65,0.00,,,0.00,0,Wunderground v.1.15,2013-06-02 09:10:00,
2013-06-02 04:12:00,48.6,37.4,29.78,NNW,346,0.0,2.0,65,0.00,,,0.00,0,Wunderground v.1.15,2013-06-02 09:12:00,
2013-06-02 04:13:00,48.6,37.4,29.78,NNW,346,0.0,2.0,65,0.00,,,0.00,0,Wunderground v.1.15,2013-06-02 09:13:00,
2013-06-02 04:14:00,48.6,37.4,29.78,NNW,346,0.0,2.0,65,0.00,,,0.00,0,Wunderground v.1.15,2013-06-02 09:14:00,
2013-06-02 04:15:00,48.5,37.3,29.79,NNW,346,0.0,2.0,65,0.00,,,0.00,0,Wunderground v.1.15,2013-06-02 09:15:00,
2013-06-02 04:17:00,48.5,37.3,29.78,NNW,346,1.0,3.0,65,0.00,,,0.00,0,Wunderground v.1.15,2013-06-02 09:17:00,
2013-06-02 04:18:00,48.5,37.3,29.78,NNW,346,0.0,3.0,65,0.00,,,0.00,0,Wunderground v.1.15,2013-06-02 09:18:00,
2013-06-02 04:19:00,48.5,37.3,29.78,NNW,346,1.0,3.0,65,0.00,,,0.00,0,Wunderground v.1.15,2013-06-02 09:19:00,
2013-06-02 04:20:00,48.5,37.3,29.78,NNW,346,1.0,3.0,65,0.00,,,0.00,0,Wunderground v.1.15,2013-06-02 09:20:00,
2013-06-02 04:22:00,48.5,37.3,29.78,NNW,346,0.0,2.0,65,0.00,,,0.00,0,Wunderground v.1.15,2013-06-02 09:22:00,
2013-06-02 04:23:00,48.5,37.3,29.78,NNW,346,0.0,2.0,65,0.00,,,0.00,0,Wunderground v.1.15,2013-06-02 09:23:00,
2013-06-02 04:24:00,48.5,37.3,29.78,NNW,346,0.0,2.0,65,0.00,,,0.00,0,Wunderground v.1.15,2013-06-02 09:24:00,
2013-06-02 04:25:00,48.5,37.3,29.78,NNW,346,0.0,2.0,65,0.00,,,0.00,0,Wunderground v.1.15,2013-06-02 09:25:00,
2013-06-02 04:27:00,48.5,37.3,29.78,NNW,346,2.0,4.0,65,0.00,,,0.00,0,Wunderground v.1.15,2013-06-02 09:27:00,
2013-06-02 04:28:00,48.5,37.7,29.78,NNW,346,0.0,4.0,66,0.00,,,0.00,0,Wunderground v.1.15,2013-06-02 09:28:00,
2013-06-02 04:29:00,48.5,37.7,29.78,NNW,346,0.0,4.0,66,0.00,,,0.00,0,Wunderground v.1.15,2013-06-02 09:29:00,
2013-06-02 04:30:00,48.5,37.7,29.78,NNW,346,0.0,0.0,66,0.00,,,0.00,0,Wunderground v.1.15,2013-06-02 09:30:00,
2013-06-02 04:32:00,48.5,37.7,29.78,NNW,346,0.0,1.0,66,0.00,,,0.00,0,Wunderground v.1.15,2013-06-02 09:32:00,
2013-06-02 04:33:00,48.5,37.7,29.79,NNW,346,0.0,3.0,66,0.00,,,0.00,0,Wunderground v.1.15,2013-06-02 09:33:00,
2013-06-02 04:34:00,48.5,37.7,29.78,NNW,346,3.0,3.0,66,0.00,,,0.00,0,Wunderground v.1.15,2013-06-02 09:34:00,
2013-06-02 04:35:00,48.5,37.7,29.78,NNW,346,1.0,4.0,66,0.00,,,0.00,0,Wunderground v.1.15,2013-06-02 09:35:00,
2013-06-02 04:37:00,48.5,37.7,29.78,NNW,347,2.0,7.0,66,0.00,,,0.00,0,Wunderground v.1.15,2013-06-02 09:37:00,
2013-06-02 04:39:00,48.5,37.7,29.78,NNW,343,0.0,7.0,66,0.00,,,0.00,0,Wunderground v.1.15,2013-06-02 09:39:00,
2013-06-02 04:40:00,48.5,37.7,29.78,NNW,343,1.0,1.0,66,0.00,,,0.00,0,Wunderground v.1.15,2013-06-02 09:40:00,
2013-06-02 04:43:00,48.6,37.7,29.78,North,0,1.0,4.0,66,0.00,,,0.00,0,Wunderground v.1.15,2013-06-02 09:43:00,
2013-06-02 04:44:00,48.5,37.7,29.78,North,0,1.0,4.0,66,0.00,,,0.00,0,Wunderground v.1.15,2013-06-02 09:44:00,
2013-06-02 04:45:00,48.6,37.7,29.78,North,0,0.0,4.0,66,0.00,,,0.00,0,Wunderground v.1.15,2013-06-02 09:45:00,
2013-06-02 04:48:00,48.5,37.7,29.78,North,0,2.0,4.0,66,0.00,,,0.00,0,Wunderground v.1.15,2013-06-02 09:48:00,
2013-06-02 04:49:00,48.5,37.7,29.78,North,0,0.0,6.0,66,0.00,,,0.00,0,Wunderground v.1.15,2013-06-02 09:49:00,
2013-06-02 04:50:00,48.5,37.7,29.78,North,8,3.0,9.0,66,0.00,,,0.00,0,Wunderground v.1.15,2013-06-02 09:50:00,
2013-06-02 04:53:00,48.5,37.7,29.79,North,2,0.0,5.0,66,0.00,,,0.00,0,Wunderground v.1.15,2013-06-02 09:53:00,
2013-06-02 04:54:00,48.5,37.3,29.79,North,2,0.0,5.0,65,0.00,,,0.00,0,Wunderground v.1.15,2013-06-02 09:54:00,
2013-06-02 04:55:00,48.6,37.4,29.79,North,0,4.0,5.0,65,0.00,,,0.00,0,Wunderground v.1.15,2013-06-02 09:55:00,
2013-06-02 04:56:00,48.6,37.7,29.79,North,0,0.0,5.0,66,0.00,,,0.00,0,Wunderground v.1.15,2013-06-02 09:56:00,
2013-06-02 04:58:00,48.6,37.7,29.79,North,0,1.0,5.0,66,0.00,,,0.00,0,Wunderground v.1.15,2013-06-02 09:58:00,
2013-06-02 04:59:00,48.6,37.4,29.79,North,0,1.0,5.0,65,0.00,,,0.00,0,Wunderground v.1.15,2013-06-02 09:59:00,
2013-06-02 05:00:00,48.6,37.4,29.79,NNW,345,3.0,3.0,65,0.00,,,0.00,0,Wunderground v.1.15,2013-06-02 10:00:00,
2013-06-02 05:01:00,48.6,37.7,29.79,NNW,345,0.0,3.0,66,0.00,,,0.00,0,Wunderground v.1.15,2013-06-02 10:01:00,
2013-06-02 05:03:00,48.6,37.4,29.79,NNW,345,0.0,8.0,65,0.00,,,0.00,0,Wunderground v.1.15,2013-06-02 10:03:00,
2013-06-02 05:04:00,48.6,37.4,29.79,NNW,345,0.0,8.0,65,0.00,,,0.00,0,Wunderground v.1.15,2013-06-02 10:04:00,
2013-06-02 05:05:00,48.6,37.4,29.80,NNW,345,0.0,8.0,65,0.00,,,0.00,0,Wunderground v.1.15,2013-06-02 10:05:00,
2013-06-02 05:06:00,48.6,37.4,29.79,NNW,345,0.0,8.0,65,0.00,,,0.00,0,Wunderground v.1.15,2013-06-02 10:06:00,
2013-06-02 05:08:00,48.6,37.0,29.79,NNW,340,2.0,8.0,64,0.00,,,0.00,0,Wunderground v.1.15,2013-06-02 10:08:00,
2013-06-02 05:09:00,48.6,37.0,29.79,NNW,340,3.0,8.0,64,0.00,,,0.00,0,Wunderground v.1.15,2013-06-02 10:09:00,
2013-06-02 05:10:00,48.6,37.0,29.80,NNW,343,5.0,5.0,64,0.00,,,0.00,0,Wunderground v.1.15,2013-06-02 10:10:00,
2013-06-02 05:11:00,48.5,36.5,29.79,North,357,1.0,6.0,63,0.00,,,0.00,0,Wunderground v.1.15,2013-06-02 10:11:00,
2013-06-02 05:14:00,48.5,36.1,29.80,NNW,338,8.0,11.0,62,0.00,,,0.00,0,Wunderground v.1.15,2013-06-02 10:14:00,
2013-06-02 05:15:00,48.5,36.1,29.80,North,0,2.0,11.0,62,0.00,,,0.00,0,Wunderground v.1.15,2013-06-02 10:15:00,
2013-06-02 05:16:00,48.5,36.1,29.80,North,0,6.0,11.0,62,0.00,,,0.00,0,Wunderground v.1.15,2013-06-02 10:16:00,
2013-06-02 05:19:00,48.5,36.1,29.79,NE,34,0.0,11.0,62,0.00,,,0.00,0,Wunderground v.1.15,2013-06-02 10:19:00,
2013-06-02 05:20:00,48.4,36.0,29.80,NE,34,2.0,2.0,62,0.00,,,0.00,0,Wunderground v.1.15,2013-06-02 10:20:00,
2013-06-02 05:21:00,48.4,36.0,29.79,NE,35,0.0,5.0,62,0.00,,,0.00,0,Wunderground v.1.15,2013-06-02 10:21:00,
2013-06-02 05:24:00,48.4,35.6,29.80,NNE,25,1.0,5.0,61,0.00,,,0.00,0,Wunderground v.1.15,2013-06-02 10:24:00,
2013-06-02 05:25:00,48.3,35.5,29.80,NNE,25,2.0,5.0,61,0.00,,,0.00,0,Wunderground v.1.15,2013-06-02 10:25:00,
2013-06-02 05:26:00,48.3,35.9,29.80,NNE,25,0.0,5.0,62,0.00,,,0.00,0,Wunderground v.1.15,2013-06-02 10:26:00,
2013-06-02 05:29:00,48.3,35.5,29.80,NNE,20,0.0,7.0,61,0.00,,,0.00,0,Wunderground v.1.15,2013-06-02 10:29:00,
2013-06-02 05:30:00,48.3,35.5,29.80,NNE,20,0.0,7.0,61,0.00,,,0.00,0,Wunderground v.1.15,2013-06-02 10:30:00,
2013-06-02 05:31:00,48.3,35.5,29.81,NNW,338,3.0,6.0,61,0.00,,,0.00,0,Wunderground v.1.15,2013-06-02 10:31:00,
2013-06-02 05:34:00,48.3,35.5,29.80,North,351,1.0,6.0,61,0.00,,,0.00,0,Wunderground v.1.15,2013-06-02 10:34:00,
2013-06-02 05:35:00,48.3,35.5,29.80,North,351,1.0,6.0,61,0.00,,,0.00,0,Wunderground v.1.15,2013-06-02 10:35:00,
2013-06-02 05:36:00,48.3,35.5,29.81,North,351,3.0,6.0,61,0.00,,,0.00,0,Wunderground v.1.15,2013-06-02 10:36:00,
2013-06-02 05:39:00,48.2,35.4,29.81,North,357,1.0,6.0,61,0.00,,,0.00,0,Wunderground v.1.15,2013-06-02 10:39:00,
2013-06-02 05:40:00,48.2,35.4,29.80,North,357,2.0,6.0,61,0.00,,,0.00,0,Wunderground v.1.15,2013-06-02 10:40:00,
2013-06-02 05:41:00,48.2,35.8,29.80,North,357,0.0,5.0,62,0.00,,,0.00,0,Wunderground v.1.15,2013-06-02 10:41:00,
2013-06-02 05:44:00,48.2,35.4,29.81,NNW,346,0.0,5.0,61,0.00,,,0.00,0,Wunderground v.1.15,2013-06-02 10:44:00,
2013-06-02 05:45:00,48.2,35.4,29.80,NNW,346,0.0,5.0,61,0.00,,,0.00,0,Wunderground v.1.15,2013-06-02 10:45:00,
2013-06-02 05:46:00,48.2,35.8,29.81,NNW,345,0.0,5.0,62,0.00,,,0.00,0,Wunderground v.1.15,2013-06-02 10:46:00,
2013-06-02 05:49:00,48.2,35.4,29.81,NNW,346,0.0,5.0,61,0.00,,,0.00,0,Wunderground v.1.15,2013-06-02 10:49:00,
2013-06-02 05:50:00,48.2,35.8,29.81,NNW,346,1.0,5.0,62,0.00,,,0.00,0,Wunderground v.1.15,2013-06-02 10:50:00,
2013-06-02 05:51:00,48.2,35.8,29.80,NNW,346,0.0,1.0,62,0.00,,,0.00,0,Wunderground v.1.15,2013-06-02 10:51:00,
2013-06-02 05:54:00,48.2,35.8,29.80,NNW,346,2.0,2.0,62,0.00,,,0.00,0,Wunderground v.1.15,2013-06-02 10:54:00,
2013-06-02 05:55:00,48.2,35.8,29.80,NNW,346,3.0,4.0,62,0.00,,,0.00,0,Wunderground v.1.15,2013-06-02 10:55:00,
2013-06-02 05:56:00,48.2,36.2,29.81,NNW,346,2.0,4.0,63,0.00,,,0.00,0,Wunderground v.1.15,2013-06-02 10:56:00,
2013-06-02 06:00:00,48.2,36.2,29.80,NNW,344,1.0,5.0,63,0.00,,,0.00,0,Wunderground v.1.15,2013-06-02 11:00:00,
2013-06-02 06:01:00,48.2,36.2,29.81,NNW,336,4.0,5.0,63,0.00,,,0.00,0,Wunderground v.1.15,2013-06-02 11:01:00,
2013-06-02 06:05:00,48.1,36.1,29.81,NNW,348,5.0,6.0,63,0.00,,,0.00,0,Wunderground v.1.15,2013-06-02 11:05:00,
2013-06-02 06:06:00,48.0,36.0,29.81,North,353,0.0,6.0,63,0.00,,,0.00,0,Wunderground v.1.15,2013-06-02 11:06:00,
2013-06-02 06:07:00,48.1,36.1,29.81,North,352,0.0,6.0,63,0.00,,,0.00,0,Wunderground v.1.15,2013-06-02 11:07:00,
2013-06-02 06:10:00,48.0,36.0,29.81,North,350,0.0,6.0,63,0.00,,,0.00,0,Wunderground v.1.15,2013-06-02 11:10:00,
2013-06-02 06:11:00,48.0,36.0,29.81,North,350,0.0,3.0,63,0.00,,,0.00,0,Wunderground v.1.15,2013-06-02 11:11:00,
2013-06-02 06:13:00,48.0,36.0,29.81,North,350,0.0,3.0,63,0.00,,,0.00,0,Wunderground v.1.15,2013-06-02 11:13:00,
2013-06-02 06:15:00,48.0,36.4,29.81,North,350,0.0,3.0,64,0.00,,,0.00,0,Wunderground v.1.15,2013-06-02 11:15:00,
2013-06-02 06:16:00,47.9,36.3,29.81,North,350,0.0,3.0,64,0.00,,,0.00,0,Wunderground v.1.15,2013-06-02 11:16:00,
2013-06-02 06:18:00,47.9,36.3,29.81,North,350,0.0,3.0,64,0.00,,,0.00,0,Wunderground v.1.15,2013-06-02 11:18:00,
2013-06-02 06:20:00,47.9,36.3,29.81,North,353,0.0,2.0,64,0.00,,,0.00,0,Wunderground v.1.15,2013-06-02 11:20:00,
2013-06-02 06:21:00,47.9,36.7,29.81,North,353,2.0,3.0,65,0.00,,,0.00,0,Wunderground v.1.15,2013-06-02 11:21:00,
2013-06-02 06:23:00,47.9,36.7,29.82,North,353,3.0,3.0,65,0.00,,,0.00,0,Wunderground v.1.15,2013-06-02 11:23:00,
2013-06-02 06:25:00,47.9,37.1,29.82,North,353,1.0,3.0,66,0.00,,,0.00,0,Wunderground v.1.15,2013-06-02 11:25:00,
2013-06-02 06:26:00,47.8,37.0,29.81,North,353,0.0,3.0,66,0.00,,,0.00,0,Wunderground v.1.15,2013-06-02 11:26:00,
2013-06-02 06:28:00,47.8,37.4,29.82,North,353,0.0,3.0,67,0.00,,,0.00,0,Wunderground v.1.15,2013-06-02 11:28:00,
2013-06-02 06:30:00,47.8,37.4,29.81,North,353,0.0,1.0,67,0.00,,,0.00,0,Wunderground v.1.15,2013-06-02 11:30:00,
2013-06-02 06:31:00,47.8,37.4,29.82,North,351,1.0,3.0,67,0.00,,,0.00,0,Wunderground v.1.15,2013-06-02 11:31:00,
2013-06-02 06:33:00,47.7,37.7,29.82,North,351,0.0,3.0,68,0.00,,,0.00,0,Wunderground v.1.15,2013-06-02 11:33:00,
2013-06-02 06:35:00,47.7,37.7,29.82,North,351,0.0,3.0,68,0.00,,,0.00,0,Wunderground v.1.15,2013-06-02 11:35:00,
2013-06-02 06:36:00,47.7,37.7,29.82,North,351,0.0,3.0,68,0.00,,,0.00,0,Wunderground v.1.15,2013-06-02 11:36:00,
2013-06-02 06:37:00,47.7,37.7,29.82,North,351,0.0,3.0,68,0.00,,,0.00,0,Wunderground v.1.15,2013-06-02 11:37:00,
2013-06-02 06:38:00,47.7,37.7,29.83,North,351,0.0,3.0,68,0.00,,,0.00,0,Wunderground v.1.15,2013-06-02 11:38:00,
2013-06-02 06:40:00,47.7,38.0,29.83,North,350,0.0,4.0,69,0.00,,,0.00,0,Wunderground v.1.15,2013-06-02 11:40:00,
2013-06-02 06:41:00,47.7,38.0,29.82,NNW,344,3.0,4.0,69,0.00,,,0.00,0,Wunderground v.1.15,2013-06-02 11:41:00,
2013-06-02 06:42:00,47.7,37.7,29.83,NNW,344,2.0,4.0,68,0.00,,,0.00,0,Wunderground v.1.15,2013-06-02 11:42:00,
2013-06-02 06:43:00,47.7,38.0,29.83,NNW,344,0.0,4.0,69,0.00,,,0.00,0,Wunderground v.1.15,2013-06-02 11:43:00,
2013-06-02 06:45:00,47.7,38.0,29.83,NNW,344,6.0,6.0,69,0.00,,,0.00,0,Wunderground v.1.15,2013-06-02 11:45:00,
2013-06-02 06:46:00,47.6,38.3,29.83,NNW,344,0.0,6.0,70,0.00,,,0.00,0,Wunderground v.1.15,2013-06-02 11:46:00,
2013-06-02 06:47:00,47.6,37.9,29.82,NNW,344,0.0,6.0,69,0.00,,,0.00,0,Wunderground v.1.15,2013-06-02 11:47:00,
2013-06-02 06:48:00,47.6,37.9,29.83,NNW,344,0.0,6.0,69,0.00,,,0.00,0,Wunderground v.1.15,2013-06-02 11:48:00,
2013-06-02 06:51:00,47.6,38.3,29.83,NNW,344,0.0,1.0,70,0.00,,,0.00,0,Wunderground v.1.15,2013-06-02 11:51:00,
2013-06-02 06:52:00,47.6,38.3,29.83,NNW,344,0.0,1.0,70,0.00,,,0.00,0,Wunderground v.1.15,2013-06-02 11:52:00,
2013-06-02 06:53:00,47.6,38.3,29.83,NNW,344,0.0,2.0,70,0.00,,,0.00,0,Wunderground v.1.15,2013-06-02 11:53:00,
2013-06-02 06:56:00,47.6,37.9,29.83,NNW,343,0.0,5.0,69,0.00,,,0.00,0,Wunderground v.1.15,2013-06-02 11:56:00,
2013-06-02 06:57:00,47.7,38.0,29.83,NNW,343,1.0,5.0,69,0.00,,,0.00,0,Wunderground v.1.15,2013-06-02 11:57:00,
2013-06-02 06:58:00,47.6,37.9,29.83,NNW,343,1.0,5.0,69,0.00,,,0.00,0,Wunderground v.1.15,2013-06-02 11:58:00,
2013-06-02 07:01:00,47.7,38.0,29.83,NNW,343,0.0,0.0,69,0.00,,,0.00,0,Wunderground v.1.15,2013-06-02 12:01:00,
2013-06-02 07:02:00,47.7,37.7,29.83,North,0,6.0,8.0,68,0.00,,,0.00,0,Wunderground v.1.15,2013-06-02 12:02:00,
2013-06-02 07:03:00,47.7,37.7,29.83,NW,320,6.0,8.0,68,0.00,,,0.00,0,Wunderground v.1.15,2013-06-02 12:03:00,
2013-06-02 07:06:00,47.7,36.9,29.83,NW,320,0.0,8.0,66,0.00,,,0.00,0,Wunderground v.1.15,2013-06-02 12:06:00,
2013-06-02 07:07:00,47.7,36.5,29.83,NW,320,2.0,8.0,65,0.00,,,0.00,0,Wunderground v.1.15,2013-06-02 12:07:00,
2013-06-02 07:08:00,47.8,36.6,29.83,NW,320,4.0,8.0,65,0.00,,,0.00,0,Wunderground v.1.15,2013-06-02 12:08:00,
2013-06-02 07:11:00,47.7,36.1,29.83,NW,320,0.0,2.0,64,0.00,,,0.00,0,Wunderground v.1.15,2013-06-02 12:11:00,
2013-06-02 07:12:00,47.8,36.2,29.83,NW,321,2.0,5.0,64,0.00,,,0.00,0,Wunderground v.1.15,2013-06-02 12:12:00,
2013-06-02 07:14:00,47.9,36.3,29.83,NW,321,3.0,5.0,64,0.00,,,0.00,0,Wunderground v.1.15,2013-06-02 12:14:00,
2013-06-02 07:16:00,47.9,36.3,29.83,NW,321,0.0,5.0,64,0.00,,,0.00,0,Wunderground v.1.15,2013-06-02 12:16:00,
2013-06-02 07:17:00,47.9,36.3,29.84,NW,321,0.0,5.0,64,0.00,,,0.00,0,Wunderground v.1.15,2013-06-02 12:17:00,
2013-06-02 07:19:00,48.0,36.4,29.84,NW,321,0.0,5.0,64,0.00,,,0.00,0,Wunderground v.1.15,2013-06-02 12:19:00,
2013-06-02 07:21:00,48.1,36.5,29.84,NW,321,0.0,0.0,64,0.00,,,0.00,0,Wunderground v.1.15,2013-06-02 12:21:00,
2013-06-02 07:22:00,48.2,36.6,29.84,NW,320,0.0,4.0,64,0.00,,,0.00,0,Wunderground v.1.15,2013-06-02 12:22:00,
2013-06-02 07:24:00,48.2,36.2,29.84,NNW,329,7.0,7.0,63,0.00,,,0.00,0,Wunderground v.1.15,2013-06-02 12:24:00,
2013-06-02 07:26:00,48.2,35.8,29.84,NW,320,0.0,10.0,62,0.00,,,0.00,0,Wunderground v.1.15,2013-06-02 12:26:00,
2013-06-02 07:27:00,48.2,35.8,29.84,NNW,336,4.0,10.0,62,0.00,,,0.00,0,Wunderground v.1.15,2013-06-02 12:27:00,
2013-06-02 07:28:00,48.2,35.4,29.84,NNE,18,1.0,10.0,61,0.00,,,0.00,0,Wunderground v.1.15,2013-06-02 12:28:00,
2013-06-02 07:29:00,48.2,35.8,29.84,NNE,27,5.0,10.0,62,0.00,,,0.00,0,Wunderground v.1.15,2013-06-02 12:29:00,
2013-06-02 07:31:00,48.1,35.3,29.84,North,0,2.0,8.0,61,0.00,,,0.00,0,Wunderground v.1.15,2013-06-02 12:31:00,
2013-06-02 07:32:00,48.1,35.3,29.84,North,0,0.0,8.0,61,0.00,,,0.00,0,Wunderground v.1.15,2013-06-02 12:32:00,
2013-06-02 07:33:00,48.2,35.4,29.84,North,0,5.0,8.0,61,0.00,,,0.00,0,Wunderground v.1.15,2013-06-02 12:33:00,
2013-06-02 07:34:00,48.2,35.4,29.84,North,0,2.0,8.0,61,0.00,,,0.00,0,Wunderground v.1.15,2013-06-02 12:34:00,
2013-06-02 07:36:00,48.5,35.7,29.84,ENE,70,3.0,9.0,61,0.00,,,0.00,0,Wunderground v.1.15,2013-06-02 12:36:00,
2013-06-02 07:37:00,48.6,35.7,29.84,NE,52,4.0,9.0,61,0.00,,,0.00,0,Wunderground v.1.15,2013-06-02 12:37:00,
2013-06-02 07:38:00,48.7,35.8,29.84,NE,47,1.0,9.0,61,0.00,,,0.00,0,Wunderground v.1.15,2013-06-02 12:38:00,
2013-06-02 07:40:00,48.8,35.9,29.84,NE,47,0.0,9.0,61,0.00,,,0.00,0,Wunderground v.1.15,2013-06-02 12:40:00,
2013-06-02 07:42:00,49.0,36.1,29.85,NE,48,3.0,5.0,61,0.00,,,0.00,0,Wunderground v.1.15,2013-06-02 12:42:00,
2013-06-02 07:43:00,49.1,35.8,29.84,NE,50,2.0,6.0,60,0.00,,,0.00,0,Wunderground v.1.15,2013-06-02 12:43:00,
2013-06-02 07:45:00,49.0,35.7,29.84,NE,46,0.0,6.0,60,0.00,,,0.00,0,Wunderground v.1.15,2013-06-02 12:45:00,
2013-06-02 07:47:00,48.9,35.6,29.84,NNE,32,1.0,6.0,60,0.00,,,0.00,0,Wunderground v.1.15,2013-06-02 12:47:00,
2013-06-02 07:48:00,48.9,35.6,29.84,NNE,32,1.0,6.0,60,0.00,,,0.00,0,Wunderground v.1.15,2013-06-02 12:48:00,
2013-06-02 07:50:00,48.7,35.0,29.84,NNE,15,0.0,2.0,59,0.00,,,0.00,0,Wunderground v.1.15,2013-06-02 12:50:00,
2013-06-02 07:52:00,48.5,34.8,29.84,North,11,5.0,5.0,59,0.00,,,0.00,0,Wunderground v.1.15,2013-06-02 12:52:00,
2013-06-02 07:53:00,48.5,35.2,29.85,North,8,2.0,5.0,60,0.00,,,0.00,0,Wunderground v.1.15,2013-06-02 12:53:00,
2013-06-02 07:55:00,48.4,35.1,29.85,North,8,2.0,5.0,60,0.00,,,0.00,0,Wunderground v.1.15,2013-06-02 12:55:00,
2013-06-02 07:57:00,48.3,35.0,29.84,North,356,0.0,7.0,60,0.00,,,0.00,0,Wunderground v.1.15,2013-06-02 12:57:00,
2013-06-02 07:58:00,48.3,35.0,29.84,North,0,1.0,7.0,60,0.00,,,0.00,0,Wunderground v.1.15,2013-06-02 12:58:00,
2013-06-02 07:59:00,48.2,35.4,29.84,North,0,1.0,7.0,61,0.00,,,0.00,0,Wunderground v.1.15,2013-06-02 12:59:00,
2013-06-02 08:00:00,48.1,35.3,29.84,North,0,5.0,7.0,61,0.00,,,0.00,0,Wunderground v.1.15,2013-06-02 13:00:00,
2013-06-02 08:02:00,48.1,34.9,29.84,North,0,2.0,7.0,60,0.00,,,0.00,0,Wunderground v.1.15,2013-06-02 13:02:00,
2013-06-02 08:03:00,48.0,35.2,29.85,NNW,338,2.0,7.0,61,0.00,,,0.00,0,Wunderground v.1.15,2013-06-02 13:03:00,
2013-06-02 08:04:00,48.0,35.2,29.85,NNW,336,1.0,7.0,61,0.00,,,0.00,0,Wunderground v.1.15,2013-06-02 13:04:00,
2013-06-02 08:05:00,48.0,35.2,29.85,NNW,336,0.0,7.0,61,0.00,,,0.00,0,Wunderground v.1.15,2013-06-02 13:05:00,
2013-06-02 08:07:00,48.0,35.2,29.85,NNW,336,1.0,7.0,61,0.00,,,0.00,0,Wunderground v.1.15,2013-06-02 13:07:00,
2013-06-02 08:08:00,48.0,35.2,29.85,NNW,336,0.0,7.0,61,0.00,,,0.00,0,Wunderground v.1.15,2013-06-02 13:08:00,
2013-06-02 08:09:00,48.0,35.2,29.85,NNW,339,3.0,7.0,61,0.00,,,0.00,0,Wunderground v.1.15,2013-06-02 13:09:00,
2013-06-02 08:10:00,48.2,35.8,29.85,NNW,339,1.0,1.0,62,0.00,,,0.00,0,Wunderground v.1.15,2013-06-02 13:10:00,
2013-06-02 08:12:00,48.4,36.0,29.85,NNW,339,1.0,2.0,62,0.00,,,0.00,0,Wunderground v.1.15,2013-06-02 13:12:00,
2013-06-02 08:13:00,48.5,36.1,29.85,North,351,2.0,4.0,62,0.00,,,0.00,0,Wunderground v.1.15,2013-06-02 13:13:00,
2013-06-02 08:14:00,48.7,36.3,29.85,NNE,32,1.0,6.0,62,0.00,,,0.00,0,Wunderground v.1.15,2013-06-02 13:14:00,
2013-06-02 08:15:00,48.8,35.9,29.86,NNE,31,2.0,6.0,61,0.00,,,0.00,0,Wunderground v.1.15,2013-06-02 13:15:00,
2013-06-02 08:16:00,49.1,36.2,29.85,NNE,32,2.0,6.0,61,0.00,,,0.00,0,Wunderground v.1.15,2013-06-02 13:16:00,
2013-06-02 08:18:00,49.4,36.1,29.85,NE,44,2.0,7.0,60,0.00,,,0.00,0,Wunderground v.1.15,2013-06-02 13:18:00,
2013-06-02 08:19:00,49.7,36.4,29.85,NE,44,1.0,7.0,60,0.00,,,0.00,0,Wunderground v.1.15,2013-06-02 13:19:00,
2013-06-02 08:20:00,49.8,36.5,29.85,NE,44,1.0,7.0,60,0.00,,,0.00,0,Wunderground v.1.15,2013-06-02 13:20:00,
2013-06-02 08:21:00,49.9,36.6,29.85,NE,44,2.0,3.0,60,0.00,,,0.00,0,Wunderground v.1.15,2013-06-02 13:21:00,
2013-06-02 08:23:00,50.4,36.6,29.85,North,5,5.0,6.0,59,0.00,,,0.00,0,Wunderground v.1.15,2013-06-02 13:23:00,
2013-06-02 08:24:00,50.5,36.7,29.85,NNW,335,4.0,8.0,59,0.00,,,0.00,0,Wunderground v.1.15,2013-06-02 13:24:00,
2013-06-02 08:25:00,50.5,36.3,29.85,North,354,0.0,8.0,58,0.00,,,0.00,0,Wunderground v.1.15,2013-06-02 13:25:00,
2013-06-02 08:26:00,50.5,35.8,29.86,NNW,342,2.0,8.0,57,0.00,,,0.00,0,Wunderground v.1.15,2013-06-02 13:26:00,
2013-06-02 08:28:00,50.5,36.3,29.85,NNW,342,1.0,8.0,58,0.00,,,0.00,0,Wunderground v.1.15,2013-06-02 13:28:00,
2013-06-02 08:29:00,50.5,36.3,29.85,WNW,285,1.0,8.0,58,0.00,,,0.00,0,Wunderground v.1.15,2013-06-02 13:29:00,
2013-06-02 08:30:00,50.5,36.7,29.86,WNW,285,0.0,1.0,59,0.00,,,0.00,0,Wunderground v.1.15,2013-06-02 13:30:00,
2013-06-02 08:31:00,50.6,37.2,29.85,WNW,286,3.0,3.0,60,0.00,,,0.00,0,Wunderground v.1.15,2013-06-02 13:31:00,
2013-06-02 08:33:00,50.5,36.7,29.86,NNW,333,0.0,8.0,59,0.00,,,0.00,0,Wunderground v.1.15,2013-06-02 13:33:00,
2013-06-02 08:34:00,50.5,36.7,29.86,NNW,332,4.0,8.0,59,0.00,,,0.00,0,Wunderground v.1.15,2013-06-02 13:34:00,
2013-06-02 08:35:00,50.4,36.6,29.86,NNW,332,1.0,8.0,59,0.00,,,0.00,0,Wunderground v.1.15,2013-06-02 13:35:00,
2013-06-02 08:36:00,50.3,36.5,29.85,NNW,332,0.0,8.0,59,0.00,,,0.00,0,Wunderground v.1.15,2013-06-02 13:36:00,
2013-06-02 08:38:00,50.2,36.8,29.86,NNW,332,0.0,8.0,60,0.00,,,0.00,0,Wunderground v.1.15,2013-06-02 13:38:00,
2013-06-02 08:39:00,50.2,36.8,29.86,NNW,332,0.0,8.0,60,0.00,,,0.00,0,Wunderground v.1.15,2013-06-02 13:39:00,
2013-06-02 08:40:00,50.2,36.8,29.86,NNW,332,0.0,8.0,60,0.00,,,0.00,0,Wunderground v.1.15,2013-06-02 13:40:00,
2013-06-02 08:41:00,50.2,36.8,29.85,WNW,290,5.0,6.0,60,0.00,,,0.00,0,Wunderground v.1.15,2013-06-02 13:41:00,
2013-06-02 08:44:00,50.0,36.7,29.86,North,6,0.0,6.0,60,0.00,,,0.00,0,Wunderground v.1.15,2013-06-02 13:44:00,
2013-06-02 08:45:00,50.0,36.7,29.86,North,6,0.0,6.0,60,0.00,,,0.00,0,Wunderground v.1.15,2013-06-02 13:45:00,
2013-06-02 08:46:00,50.0,37.1,29.86,North,6,0.0,6.0,61,0.00,,,0.00,0,Wunderground v.1.15,2013-06-02 13:46:00,
2013-06-02 08:47:00,50.1,37.2,29.86,North,6,0.0,6.0,61,0.00,,,0.00,0,Wunderground v.1.15,2013-06-02 13:47:00,
2013-06-02 08:49:00,50.4,37.4,29.86,North,2,2.0,6.0,61,0.00,,,0.00,0,Wunderground v.1.15,2013-06-02 13:49:00,
2013-06-02 08:50:00,50.4,37.4,29.86,North,0,2.0,6.0,61,0.00,,,0.00,0,Wunderground v.1.15,2013-06-02 13:50:00,
2013-06-02 08:51:00,50.6,37.2,29.85,NNW,333,2.0,7.0,60,0.00,,,0.00,0,Wunderground v.1.15,2013-06-02 13:51:00,
2013-06-02 08:52:00,50.5,37.1,29.86,NNW,331,1.0,7.0,60,0.00,,,0.00,0,Wunderground v.1.15,2013-06-02 13:52:00,
2013-06-02 08:54:00,50.2,36.4,29.86,NNW,339,1.0,7.0,59,0.00,,,0.00,0,Wunderground v.1.15,2013-06-02 13:54:00,
2013-06-02 08:55:00,50.2,36.8,29.86,NNW,339,2.0,7.0,60,0.00,,,0.00,0,Wunderground v.1.15,2013-06-02 13:55:00,
2013-06-02 08:56:00,50.1,36.7,29.86,NNW,338,0.0,7.0,60,0.00,,,0.00,0,Wunderground v.1.15,2013-06-02 13:56:00,
2013-06-02 08:57:00,50.0,36.7,29.85,NNW,338,0.0,7.0,60,0.00,,,0.00,0,Wunderground v.1.15,2013-06-02 13:57:00,
2013-06-02 08:59:00,50.0,36.7,29.86,NNW,338,0.0,7.0,60,0.00,,,0.00,0,Wunderground v.1.15,2013-06-02 13:59:00,
2013-06-02 09:00:00,49.9,36.6,29.86,NNW,338,0.0,0.0,60,0.00,,,0.00,0,Wunderground v.1.15,2013-06-02 14:00:00,
2013-06-02 09:01:00,49.9,37.0,29.86,NNW,338,0.0,0.0,61,0.00,,,0.00,0,Wunderground v.1.15,2013-06-02 14:01:00,
2013-06-02 09:02:00,49.9,36.6,29.86,North,349,2.0,5.0,60,0.00,,,0.00,0,Wunderground v.1.15,2013-06-02 14:02:00,
2013-06-02 09:04:00,49.8,36.5,29.86,NNW,348,1.0,5.0,60,0.00,,,0.00,0,Wunderground v.1.15,2013-06-02 14:04:00,
2013-06-02 09:05:00,49.8,36.5,29.86,NNW,348,1.0,5.0,60,0.00,,,0.00,0,Wunderground v.1.15,2013-06-02 14:05:00,
2013-06-02 09:06:00,49.8,36.5,29.86,NNW,348,0.0,5.0,60,0.00,,,0.00,0,Wunderground v.1.15,2013-06-02 14:06:00,
2013-06-02 09:07:00,49.9,36.6,29.86,NNW,348,2.0,5.0,60,0.00,,,0.00,0,Wunderground v.1.15,2013-06-02 14:07:00,
2013-06-02 09:10:00,50.0,36.7,29.86,NNW,332,1.0,8.0,60,0.00,,,0.00,0,Wunderground v.1.15,2013-06-02 14:10:00,
2013-06-02 09:11:00,50.1,36.7,29.86,NNW,332,0.0,2.0,60,0.00,,,0.00,0,Wunderground v.1.15,2013-06-02 14:11:00,
2013-06-02 09:12:00,50.2,36.8,29.87,NW,306,3.0,6.0,60,0.00,,,0.00,0,Wunderground v.1.15,2013-06-02 14:12:00,
2013-06-02 09:15:00,50.5,36.7,29.86,NW,306,0.0,6.0,59,0.00,,,0.00,0,Wunderground v.1.15,2013-06-02 14:15:00,
2013-06-02 09:16:00,50.5,36.3,29.86,NW,306,0.0,6.0,58,0.00,,,0.00,0,Wunderground v.1.15,2013-06-02 14:16:00,
2013-06-02 09:17:00,50.5,36.7,29.86,NW,306,0.0,6.0,59,0.00,,,0.00,0,Wunderground v.1.15,2013-06-02 14:17:00,
2013-06-02 09:20:00,50.9,36.6,29.87,North,0,4.0,6.0,58,0.00,,,0.00,0,Wunderground v.1.15,2013-06-02 14:20:00,
2013-06-02 09:21:00,51.0,36.7,29.86,NNW,328,4.0,7.0,58,0.00,,,0.00,0,Wunderground v.1.15,2013-06-02 14:21:00,
2013-06-02 09:22:00,51.0,36.7,29.86,NW,322,2.0,7.0,58,0.00,,,0.00,0,Wunderground v.1.15,2013-06-02 14:22:00,
2013-06-02 09:25:00,51.2,36.9,29.86,NW,321,4.0,7.0,58,0.00,,,0.00,0,Wunderground v.1.15,2013-06-02 14:25:00,
2013-06-02 09:26:00,51.2,36.9,29.86,NW,317,0.0,7.0,58,0.00,,,0.00,0,Wunderground v.1.15,2013-06-02 14:26:00,
2013-06-02 09:27:00,51.3,37.0,29.86,NW,317,0.0,7.0,58,0.00,,,0.00,0,Wunderground v.1.15,2013-06-02 14:27:00,
2013-06-02 09:30:00,51.8,37.5,29.86,NW,318,3.0,7.0,58,0.00,,,0.00,0,Wunderground v.1.15,2013-06-02 14:30:00,
2013-06-02 09:31:00,52.1,38.2,29.86,NW,317,1.0,4.0,59,0.00,,,0.00,0,Wunderground v.1.15,2013-06-02 14:31:00,
2013-06-02 09:32:00,52.2,38.3,29.86,NW,318,3.0,4.0,59,0.00,,,0.00,0,Wunderground v.1.15,2013-06-02 14:32:00,
2013-06-02 09:35:00,52.5,36.8,29.87,NNW,331,2.0,6.0,55,0.00,,,0.00,0,Wunderground v.1.15,2013-06-02 14:35:00,
2013-06-02 09:36:00,52.4,36.7,29.87,WNW,303,0.0,8.0,55,0.00,,,0.00,0,Wunderground v.1.15,2013-06-02 14:36:00,
2013-06-02 09:37:00,52.4,36.7,29.87,WNW,287,2.0,11.0,55,0.00,,,0.00,0,Wunderground v.1.15,2013-06-02 14:37:00,
2013-06-02 09:40:00,52.0,35.9,29.86,NNW,333,1.0,1.0,54,0.00,,,0.00,0,Wunderground v.1.15,2013-06-02 14:40:00,
2013-06-02 09:41:00,52.0,36.3,29.86,NNW,333,0.0,3.0,55,0.00,,,0.00,0,Wunderground v.1.15,2013-06-02 14:41:00,
2013-06-02 09:42:00,51.9,36.2,29.87,North,0,3.0,10.0,55,0.00,,,0.00,0,Wunderground v.1.15,2013-06-02 14:42:00,
2013-06-02 09:43:00,51.9,35.8,29.87,NW,318,5.0,10.0,54,0.00,,,0.00,0,Wunderground v.1.15,2013-06-02 14:43:00,
2013-06-02 09:45:00,51.9,35.3,29.87,NNW,336,4.0,10.0,53,0.00,,,0.00,0,Wunderground v.1.15,2013-06-02 14:45:00,
2013-06-02 09:46:00,51.9,35.8,29.86,NNW,336,1.0,10.0,54,0.00,,,0.00,0,Wunderground v.1.15,2013-06-02 14:46:00,
2013-06-02 09:47:00,51.9,35.8,29.87,North,0,4.0,10.0,54,0.00,,,0.00,0,Wunderground v.1.15,2013-06-02 14:47:00,
2013-06-02 09:48:00,51.9,35.3,29.87,NNW,340,2.0,10.0,53,0.00,,,0.00,0,Wunderground v.1.15,2013-06-02 14:48:00,
2013-06-02 09:50:00,51.7,35.1,29.87,WNW,293,3.0,5.0,53,0.00,,,0.00,0,Wunderground v.1.15,2013-06-02 14:50:00,
2013-06-02 09:51:00,51.7,35.1,29.87,North,359,5.0,6.0,53,0.00,,,0.00,0,Wunderground v.1.15,2013-06-02 14:51:00,
2013-06-02 09:52:00,51.7,35.1,29.87,North,9,1.0,6.0,53,0.00,,,0.00,0,Wunderground v.1.15,2013-06-02 14:52:00,
2013-06-02 09:53:00,51.7,35.1,29.87,North,356,3.0,9.0,53,0.00,,,0.00,0,Wunderground v.1.15,2013-06-02 14:53:00,
2013-06-02 09:55:00,51.8,35.2,29.87,North,0,5.0,9.0,53,0.00,,,0.00,0,Wunderground v.1.15,2013-06-02 14:55:00,
2013-06-02 09:56:00,51.9,34.8,29.87,North,4,5.0,9.0,52,0.00,,,0.00,0,Wunderground v.1.15,2013-06-02 14:56:00,
2013-06-02 09:57:00,51.9,34.8,29.87,NNW,342,1.0,9.0,52,0.00,,,0.00,0,Wunderground v.1.15,2013-06-02 14:57:00,
2013-06-02 09:58:00,52.0,34.9,29.87,NW,310,0.0,9.0,52,0.00,,,0.00,0,Wunderground v.1.15,2013-06-02 14:58:00,
2013-06-02 10:00:00,52.2,35.1,29.87,NNW,336,3.0,4.0,52,0.00,,,0.00,0,Wunderground v.1.15,2013-06-02 15:00:00,
2013-06-02 10:01:00,52.2,35.1,29.87,NNW,336,2.0,5.0,52,0.00,,,0.00,0,Wunderground v.1.15,2013-06-02 15:01:00,
2013-06-02 10:02:00,52.4,35.3,29.86,North,0,3.0,6.0,52,0.00,,,0.00,0,Wunderground v.1.15,2013-06-02 15:02:00,
2013-06-02 10:03:00,52.5,35.4,29.87,NE,37,4.0,6.0,52,0.00,,,0.00,0,Wunderground v.1.15,2013-06-02 15:03:00,
2013-06-02 10:06:00,52.6,35.0,29.87,NNW,332,4.0,7.0,51,0.00,,,0.00,0,Wunderground v.1.15,2013-06-02 15:06:00,
2013-06-02 10:07:00,52.6,35.0,29.86,North,351,1.0,7.0,51,0.00,,,0.00,0,Wunderground v.1.15,2013-06-02 15:07:00,
2013-06-02 10:08:00,52.6,35.0,29.87,North,0,0.0,7.0,51,0.00,,,0.00,0,Wunderground v.1.15,2013-06-02 15:08:00,
2013-06-02 10:11:00,52.9,35.7,29.86,NNE,32,1.0,5.0,52,0.00,,,0.00,0,Wunderground v.1.15,2013-06-02 15:11:00,
2013-06-02 10:12:00,53.1,34.9,29.86,NNE,15,4.0,9.0,50,0.00,,,0.00,0,Wunderground v.1.15,2013-06-02 15:12:00,
2013-06-02 10:13:00,53.0,34.3,29.86,NNE,14,4.0,9.0,49,0.00,,,0.00,0,Wunderground v.1.15,2013-06-02 15:13:00,
2013-06-02 10:16:00,52.8,34.2,29.87,NW,324,5.0,11.0,49,0.00,,,0.00,0,Wunderground v.1.15,2013-06-02 15:16:00,
2013-06-02 10:17:00,52.8,33.6,29.86,North,358,8.0,12.0,48,0.00,,,0.00,0,Wunderground v.1.15,2013-06-02 15:17:00,
2013-06-02 10:18:00,52.9,33.7,29.86,North,0,3.0,12.0,48,0.00,,,0.00,0,Wunderground v.1.15,2013-06-02 15:18:00,
2013-06-02 10:21:00,53.0,33.8,29.86,NNW,334,6.0,10.0,48,0.00,,,0.00,0,Wunderground v.1.15,2013-06-02 15:21:00,
2013-06-02 10:22:00,53.1,33.9,29.87,North,0,3.0,10.0,48,0.00,,,0.00,0,Wunderground v.1.15,2013-06-02 15:22:00,
2013-06-02 10:23:00,53.2,34.0,29.86,North,0,0.0,10.0,48,0.00,,,0.00,0,Wunderground v.1.15,2013-06-02 15:23:00,
2013-06-02 10:24:00,53.2,34.0,29.86,North,0,0.0,10.0,48,0.00,,,0.00,0,Wunderground v.1.15,2013-06-02 15:24:00,
2013-06-02 10:26:00,53.6,34.4,29.87,North,357,6.0,10.0,48,0.00,,,0.00,0,Wunderground v.1.15,2013-06-02 15:26:00,
2013-06-02 10:27:00,53.6,33.8,29.86,North,0,4.0,10.0,47,0.00,,,0.00,0,Wunderground v.1.15,2013-06-02 15:27:00,
2013-06-02 10:28:00,53.6,33.8,29.86,North,0,2.0,10.0,47,0.00,,,0.00,0,Wunderground v.1.15,2013-06-02 15:28:00,
2013-06-02 10:29:00,53.6,33.8,29.86,North,0,3.0,10.0,47,0.00,,,0.00,0,Wunderground v.1.15,2013-06-02 15:29:00,
2013-06-02 10:31:00,53.8,34.6,29.86,North,0,0.0,4.0,48,0.00,,,0.00,0,Wunderground v.1.15,2013-06-02 15:31:00,
2013-06-02 10:33:00,54.0,34.7,29.86,NNE,25,3.0,4.0,48,0.00,,,0.00,0,Wunderground v.1.15,2013-06-02 15:33:00,
2013-06-02 10:34:00,54.3,35.0,29.86,NE,34,5.0,8.0,48,0.00,,,0.00,0,Wunderground v.1.15,2013-06-02 15:34:00,
2013-06-02 10:36:00,54.3,33.9,29.86,ENE,78,2.0,8.0,46,0.00,,,0.00,0,Wunderground v.1.15,2013-06-02 15:36:00,
2013-06-02 10:37:00,54.3,33.9,29.86,ENE,74,3.0,8.0,46,0.00,,,0.00,0,Wunderground v.1.15,2013-06-02 15:37:00,
2013-06-02 10:38:00,54.3,33.9,29.86,NE,48,6.0,8.0,46,0.00,,,0.00,0,Wunderground v.1.15,2013-06-02 15:38:00,
2013-06-02 10:39:00,54.2,33.9,29.86,NNE,22,3.0,8.0,46,0.00,,,0.00,0,Wunderground v.1.15,2013-06-02 15:39:00,
2013-06-02 10:42:00,54.4,35.1,29.85,NNE,31,4.0,5.0,48,0.00,,,0.00,0,Wunderground v.1.15,2013-06-02 15:42:00,
2013-06-02 10:43:00,54.5,35.2,29.85,NE,35,2.0,5.0,48,0.00,,,0.00,0,Wunderground v.1.15,2013-06-02 15:43:00,
2013-06-02 10:44:00,54.7,35.4,29.86,North,354,4.0,7.0,48,0.00,,,0.00,0,Wunderground v.1.15,2013-06-02 15:44:00,
2013-06-02 10:47:00,55.0,35.1,29.86,NNW,342,5.0,7.0,47,0.00,,,0.00,0,Wunderground v.1.15,2013-06-02 15:47:00,
2013-06-02 10:48:00,54.9,35.0,29.86,NW,317,3.0,7.0,47,0.00,,,0.00,0,Wunderground v.1.15,2013-06-02 15:48:00,
2013-06-02 10:49:00,54.9,35.0,29.86,NW,316,3.0,7.0,47,0.00,,,0.00,0,Wunderground v.1.15,2013-06-02 15:49:00,
2013-06-02 10:52:00,54.8,34.9,29.86,NW,319,1.0,3.0,47,0.00,,,0.00,0,Wunderground v.1.15,2013-06-02 15:52:00,
2013-06-02 10:53:00,55.1,35.7,29.86,NW,326,4.0,5.0,48,0.00,,,0.00,0,Wunderground v.1.15,2013-06-02 15:53:00,
2013-06-02 10:54:00,55.3,35.4,29.87,NE,39,3.0,8.0,47,0.00,,,0.00,0,Wunderground v.1.15,2013-06-02 15:54:00,
2013-06-02 10:57:00,55.6,35.7,29.86,NNE,33,0.0,8.0,47,0.00,,,0.00,0,Wunderground v.1.15,2013-06-02 15:57:00,
2013-06-02 10:58:00,55.8,35.9,29.87,NNE,28,3.0,8.0,47,0.00,,,0.00,0,Wunderground v.1.15,2013-06-02 15:58:00,
2013-06-02 10:59:00,55.9,35.4,29.87,NW,315,2.0,8.0,46,0.00,,,0.00,0,Wunderground v.1.15,2013-06-02 15:59:00,
2013-06-02 11:00:00,55.9,34.8,29.86,NW,315,2.0,8.0,45,0.00,,,0.00,0,Wunderground v.1.15,2013-06-02 16:00:00,
2013-06-02 11:02:00,56.2,35.7,29.86,NE,34,1.0,5.0,46,0.00,,,0.00,0,Wunderground v.1.15,2013-06-02 16:02:00,
2013-06-02 11:03:00,56.3,35.2,29.86,NNE,21,2.0,9.0,45,0.00,,,0.00,0,Wunderground v.1.15,2013-06-02 16:03:00,
2013-06-02 11:05:00,56.3,34.6,29.87,NE,36,5.0,9.0,44,0.00,,,0.00,0,Wunderground v.1.15,2013-06-02 16:05:00,
2013-06-02 11:07:00,55.9,34.3,29.86,North,2,4.0,9.0,44,0.00,,,0.00,0,Wunderground v.1.15,2013-06-02 16:07:00,
2013-06-02 11:09:00,55.7,34.1,29.86,NNW,343,2.0,9.0,44,0.00,,,0.00,0,Wunderground v.1.15,2013-06-02 16:09:00,
2013-06-02 11:10:00,55.7,34.7,29.85,NE,54,4.0,9.0,45,0.00,,,0.00,0,Wunderground v.1.15,2013-06-02 16:10:00,
2013-06-02 11:13:00,56.0,34.9,29.85,ENE,63,0.0,8.0,45,0.00,,,0.00,0,Wunderground v.1.15,2013-06-02 16:13:00,
2013-06-02 11:14:00,56.2,35.1,29.85,ENE,62,2.0,8.0,45,0.00,,,0.00,0,Wunderground v.1.15,2013-06-02 16:14:00,
2013-06-02 11:15:00,56.3,35.2,29.86,North,349,5.0,8.0,45,0.00,,,0.00,0,Wunderground v.1.15,2013-06-02 16:15:00,
2013-06-02 11:18:00,56.5,34.3,29.86,NE,47,1.0,8.0,43,0.00,,,0.00,0,Wunderground v.1.15,2013-06-02 16:18:00,
2013-06-02 11:19:00,56.5,34.8,29.86,NNE,22,3.0,8.0,44,0.00,,,0.00,0,Wunderground v.1.15,2013-06-02 16:19:00,
2013-06-02 11:20:00,56.6,34.3,29.86,NNE,22,2.0,8.0,43,0.00,,,0.00,0,Wunderground v.1.15,2013-06-02 16:20:00,
2013-06-02 11:23:00,56.3,33.5,29.86,NNW,345,4.0,12.0,42,0.00,,,0.00,0,Wunderground v.1.15,2013-06-02 16:23:00,
2013-06-02 11:25:00,56.1,32.7,29.86,NNW,330,2.0,12.0,41,0.00,,,0.00,0,Wunderground v.1.15,2013-06-02 16:25:00,
2013-06-02 11:28:00,55.9,33.1,29.86,North,359,6.0,12.0,42,0.00,,,0.00,0,Wunderground v.1.15,2013-06-02 16:28:00,
2013-06-02 11:30:00,55.9,33.1,29.86,North,354,6.0,12.0,42,0.00,,,0.00,0,Wunderground v.1.15,2013-06-02 16:30:00,
2013-06-02 11:33:00,55.9,33.1,29.86,North,9,7.0,10.0,42,0.00,,,0.00,0,Wunderground v.1.15,2013-06-02 16:33:00,
2013-06-02 11:34:00,55.9,33.7,29.86,North,0,0.0,10.0,43,0.00,,,0.00,0,Wunderground v.1.15,2013-06-02 16:34:00,
2013-06-02 11:35:00,55.9,33.7,29.85,NE,43,2.0,10.0,43,0.00,,,0.00,0,Wunderground v.1.15,2013-06-02 16:35:00,
2013-06-02 11:38:00,56.1,33.9,29.86,ENE,73,4.0,10.0,43,0.00,,,0.00,0,Wunderground v.1.15,2013-06-02 16:38:00,
2013-06-02 11:39:00,56.2,34.0,29.86,ENE,73,1.0,10.0,43,0.00,,,0.00,0,Wunderground v.1.15,2013-06-02 16:39:00,
2013-06-02 11:40:00,56.3,34.1,29.85,NE,52,3.0,3.0,43,0.00,,,0.00,0,Wunderground v.1.15,2013-06-02 16:40:00,
2013-06-02 11:41:00,56.3,34.1,29.86,NE,38,2.0,5.0,43,0.00,,,0.00,0,Wunderground v.1.15,2013-06-02 16:41:00,
2013-06-02 11:43:00,56.5,34.3,29.86,North,0,1.0,6.0,43,0.00,,,0.00,0,Wunderground v.1.15,2013-06-02 16:43:00,
2013-06-02 11:44:00,56.5,33.7,29.85,North,1,0.0,6.0,42,0.00,,,0.00,0,Wunderground v.1.15,2013-06-02 16:44:00,
2013-06-02 11:45:00,56.7,34.4,29.85,NNE,26,3.0,6.0,43,0.00,,,0.00,0,Wunderground v.1.15,2013-06-02 16:45:00,
2013-06-02 11:46:00,56.8,33.9,29.85,North,0,2.0,6.0,42,0.00,,,0.00,0,Wunderground v.1.15,2013-06-02 16:46:00,
2013-06-02 11:48:00,56.9,33.4,29.86,NW,304,6.0,6.0,41,0.00,,,0.00,0,Wunderground v.1.15,2013-06-02 16:48:00,
2013-06-02 11:49:00,56.9,33.4,29.86,WNW,296,5.0,6.0,41,0.00,,,0.00,0,Wunderground v.1.15,2013-06-02 16:49:00,
2013-06-02 11:50:00,56.7,33.2,29.86,West,278,5.0,8.0,41,0.00,,,0.00,0,Wunderground v.1.15,2013-06-02 16:50:00,
2013-06-02 11:51:00,56.6,33.2,29.86,WNW,282,3.0,8.0,41,0.00,,,0.00,0,Wunderground v.1.15,2013-06-02 16:51:00,
2013-06-02 11:53:00,56.4,34.2,29.86,NW,311,3.0,8.0,43,0.00,,,0.00,0,Wunderground v.1.15,2013-06-02 16:53:00,
2013-06-02 11:54:00,56.4,34.2,29.86,NW,311,4.0,8.0,43,0.00,,,0.00,0,Wunderground v.1.15,2013-06-02 16:54:00,
2013-06-02 11:55:00,56.5,33.1,29.86,NW,318,1.0,8.0,41,0.00,,,0.00,0,Wunderground v.1.15,2013-06-02 16:55:00,
2013-06-02 11:56:00,56.5,33.7,29.86,NW,320,1.0,8.0,42,0.00,,,0.00,0,Wunderground v.1.15,2013-06-02 16:56:00,
2013-06-02 11:58:00,56.5,33.1,29.85,NNW,344,3.0,8.0,41,0.00,,,0.00,0,Wunderground v.1.15,2013-06-02 16:58:00,
2013-06-02 11:59:00,56.6,33.2,29.86,NNW,341,3.0,8.0,41,0.00,,,0.00,0,Wunderground v.1.15,2013-06-02 16:59:00,
2013-06-02 12:00:00,56.5,33.7,29.85,North,0,1.0,3.0,42,0.00,,,0.00,0,Wunderground v.1.15,2013-06-02 17:00:00,
2013-06-02 12:01:00,56.5,34.3,29.85,North,0,0.0,3.0,43,0.00,,,0.00,0,Wunderground v.1.15,2013-06-02 17:01:00,
2013-06-02 12:03:00,56.8,33.9,29.85,WNW,288,3.0,7.0,42,0.00,,,0.00,0,Wunderground v.1.15,2013-06-02 17:03:00,
2013-06-02 12:04:00,56.8,33.9,29.85,WNW,289,2.0,7.0,42,0.00,,,0.00,0,Wunderground v.1.15,2013-06-02 17:04:00,
2013-06-02 12:06:00,57.3,35.0,29.85,NE,56,2.0,8.0,43,0.00,,,0.00,0,Wunderground v.1.15,2013-06-02 17:06:00,
2013-06-02 12:09:00,57.8,35.4,29.85,NE,55,0.0,8.0,43,0.00,,,0.00,0,Wunderground v.1.15,2013-06-02 17:09:00,
2013-06-02 12:11:00,58.3,35.3,29.85,NNE,14,0.0,7.0,42,0.00,,,0.00,0,Wunderground v.1.15,2013-06-02 17:11:00,
2013-06-02 12:14:00,58.5,34.2,29.86,NE,36,3.0,7.0,40,0.00,,,0.00,0,Wunderground v.1.15,2013-06-02 17:14:00,
2013-06-02 12:16:00,58.6,35.0,29.85,NNE,24,2.0,7.0,41,0.00,,,0.00,0,Wunderground v.1.15,2013-06-02 17:16:00,
2013-06-02 12:17:00,58.6,34.3,29.85,NNE,23,0.0,7.0,40,0.00,,,0.00,0,Wunderground v.1.15,2013-06-02 17:17:00,
2013-06-02 12:19:00,58.6,35.0,29.85,NNW,346,3.0,7.0,41,0.00,,,0.00,0,Wunderground v.1.15,2013-06-02 17:19:00,
2013-06-02 12:21:00,58.6,33.7,29.86,West,273,2.0,7.0,39,0.00,,,0.00,0,Wunderground v.1.15,2013-06-02 17:21:00,
2013-06-02 12:22:00,58.5,33.6,29.85,West,273,1.0,7.0,39,0.00,,,0.00,0,Wunderground v.1.15,2013-06-02 17:22:00,
2013-06-02 12:24:00,58.4,34.2,29.86,NW,314,1.0,7.0,40,0.00,,,0.00,0,Wunderground v.1.15,2013-06-02 17:24:00,
2013-06-02 12:26:00,58.3,33.4,29.85,NNW,330,3.0,9.0,39,0.00,,,0.00,0,Wunderground v.1.15,2013-06-02 17:26:00,
2013-06-02 12:27:00,58.3,34.1,29.86,NNW,330,2.0,9.0,40,0.00,,,0.00,0,Wunderground v.1.15,2013-06-02 17:27:00,
2013-06-02 12:29:00,58.2,32.7,29.85,NW,324,4.0,9.0,38,0.00,,,0.00,0,Wunderground v.1.15,2013-06-02 17:29:00,
2013-06-02 12:31:00,57.8,32.3,29.86,NNW,336,0.0,3.0,38,0.00,,,0.00,0,Wunderground v.1.15,2013-06-02 17:31:00,
2013-06-02 12:32:00,57.8,32.3,29.85,NNW,336,0.0,3.0,38,0.00,,,0.00,0,Wunderground v.1.15,2013-06-02 17:32:00,
2013-06-02 12:34:00,57.8,33.0,29.85,NW,326,0.0,4.0,39,0.00,,,0.00,0,Wunderground v.1.15,2013-06-02 17:34:00,
2013-06-02 12:37:00,58.2,34.0,29.85,NW,319,3.0,4.0,40,0.00,,,0.00,0,Wunderground v.1.15,2013-06-02 17:37:00,
2013-06-02 12:38:00,58.3,34.1,29.85,WNW,298,7.0,7.0,40,0.00,,,0.00,0,Wunderground v.1.15,2013-06-02 17:38:00,
2013-06-02 12:39:00,58.3,32.8,29.86,NW,326,6.0,15.0,38,0.00,,,0.00,0,Wunderground v.1.15,2013-06-02 17:39:00,
2013-06-02 12:42:00,58.2,32.7,29.85,NNW,337,6.0,7.0,38,0.00,,,0.00,0,Wunderground v.1.15,2013-06-02 17:42:00,
2013-06-02 12:43:00,58.2,32.7,29.85,NNE,13,6.0,7.0,38,0.00,,,0.00,0,Wunderground v.1.15,2013-06-02 17:43:00,
2013-06-02 12:44:00,58.2,32.7,29.85,North,355,0.0,7.0,38,0.00,,,0.00,0,Wunderground v.1.15,2013-06-02 17:44:00,
2013-06-02 12:45:00,58.2,32.7,29.85,North,355,0.0,7.0,38,0.00,,,0.00,0,Wunderground v.1.15,2013-06-02 17:45:00,
2013-06-02 12:47:00,58.5,34.2,29.86,North,1,2.0,7.0,40,0.00,,,0.00,0,Wunderground v.1.15,2013-06-02 17:47:00,
2013-06-02 12:48:00,58.5,34.2,29.86,North,352,2.0,7.0,40,0.00,,,0.00,0,Wunderground v.1.15,2013-06-02 17:48:00,
2013-06-02 12:49:00,58.6,34.3,29.85,North,352,0.0,7.0,40,0.00,,,0.00,0,Wunderground v.1.15,2013-06-02 17:49:00,
2013-06-02 12:50:00,58.7,33.8,29.86,North,352,0.0,1.0,39,0.00,,,0.00,0,Wunderground v.1.15,2013-06-02 17:50:00,
2013-06-02 12:52:00,58.8,33.9,29.85,North,350,0.0,3.0,39,0.00,,,0.00,0,Wunderground v.1.15,2013-06-02 17:52:00,
2013-06-02 12:53:00,58.7,33.8,29.85,North,350,3.0,3.0,39,0.00,,,0.00,0,Wunderground v.1.15,2013-06-02 17:53:00,
2013-06-02 12:54:00,58.8,33.2,29.85,NW,305,3.0,5.0,38,0.00,,,0.00,0,Wunderground v.1.15,2013-06-02 17:54:00,
2013-06-02 12:55:00,58.7,33.1,29.85,NW,312,0.0,5.0,38,0.00,,,0.00,0,Wunderground v.1.15,2013-06-02 17:55:00,
2013-06-02 12:58:00,58.8,35.1,29.85,NW,306,1.0,5.0,41,0.00,,,0.00,0,Wunderground v.1.15,2013-06-02 17:58:00,
2013-06-02 12:59:00,59.1,34.1,29.85,WNW,289,1.0,7.0,39,0.00,,,0.00,0,Wunderground v.1.15,2013-06-02 17:59:00,
2013-06-02 13:00:00,59.1,33.5,29.85,WNW,282,4.0,8.0,38,0.00,,,0.00,0,Wunderground v.1.15,2013-06-02 18:00:00,
2013-06-02 13:03:00,58.6,33.0,29.84,West,280,0.0,8.0,38,0.00,,,0.00,0,Wunderground v.1.15,2013-06-02 18:03:00,
2013-06-02 13:04:00,58.7,34.4,29.85,West,280,0.0,8.0,40,0.00,,,0.00,0,Wunderground v.1.15,2013-06-02 18:04:00,
2013-06-02 13:05:00,58.8,34.5,29.85,West,280,1.0,8.0,40,0.00,,,0.00,0,Wunderground v.1.15,2013-06-02 18:05:00,
2013-06-02 13:08:00,59.0,34.1,29.85,West,280,3.0,8.0,39,0.00,,,0.00,0,Wunderground v.1.15,2013-06-02 18:08:00,
2013-06-02 13:09:00,59.2,34.2,29.85,North,354,2.0,8.0,39,0.00,,,0.00,0,Wunderground v.1.15,2013-06-02 18:09:00,
2013-06-02 13:10:00,59.3,34.3,29.84,NE,52,7.0,7.0,39,0.00,,,0.00,0,Wunderground v.1.15,2013-06-02 18:10:00,
2013-06-02 13:13:00,59.5,33.9,29.84,NE,53,2.0,7.0,38,0.00,,,0.00,0,Wunderground v.1.15,2013-06-02 18:13:00,
2013-06-02 13:15:00,59.6,32.6,29.84,NE,52,1.0,7.0,36,0.00,,,0.00,0,Wunderground v.1.15,2013-06-02 18:15:00,
2013-06-02 13:16:00,59.5,33.9,29.85,NW,316,5.0,7.0,38,0.00,,,0.00,0,Wunderground v.1.15,2013-06-02 18:16:00,
2013-06-02 13:18:00,59.2,33.6,29.84,WNW,282,2.0,7.0,38,0.00,,,0.00,0,Wunderground v.1.15,2013-06-02 18:18:00,
2013-06-02 13:20:00,59.1,34.1,29.84,West,269,2.0,8.0,39,0.00,,,0.00,0,Wunderground v.1.15,2013-06-02 18:20:00,
2013-06-02 13:21:00,59.1,34.1,29.84,North,359,5.0,8.0,39,0.00,,,0.00,0,Wunderground v.1.15,2013-06-02 18:21:00,
2013-06-02 13:23:00,59.3,33.7,29.85,NW,308,0.0,9.0,38,0.00,,,0.00,0,Wunderground v.1.15,2013-06-02 18:23:00,
2013-06-02 13:24:00,59.2,33.6,29.84,NW,308,1.0,9.0,38,0.00,,,0.00,0,Wunderground v.1.15,2013-06-02 18:24:00,
2013-06-02 13:25:00,59.1,33.5,29.84,NW,308,3.0,9.0,38,0.00,,,0.00,0,Wunderground v.1.15,2013-06-02 18:25:00,
2013-06-02 13:26:00,59.1,33.5,29.84,WNW,289,1.0,9.0,38,0.00,,,0.00,0,Wunderground v.1.15,2013-06-02 18:26:00,
2013-06-02 13:28:00,58.8,32.6,29.84,WNW,288,0.0,9.0,37,0.00,,,0.00,0,Wunderground v.1.15,2013-06-02 18:28:00,
2013-06-02 13:29:00,58.8,32.6,29.84,WNW,288,0.0,9.0,37,0.00,,,0.00,0,Wunderground v.1.15,2013-06-02 18:29:00,
2013-06-02 13:30:00,58.7,33.1,29.84,WNW,289,3.0,3.0,38,0.00,,,0.00,0,Wunderground v.1.15,2013-06-02 18:30:00,
2013-06-02 13:32:00,58.7,33.1,29.84,WNW,286,3.0,5.0,38,0.00,,,0.00,0,Wunderground v.1.15,2013-06-02 18:32:00,
2013-06-02 13:33:00,58.9,34.0,29.84,NW,320,0.0,5.0,39,0.00,,,0.00,0,Wunderground v.1.15,2013-06-02 18:33:00,
2013-06-02 13:34:00,58.9,34.6,29.85,NW,320,2.0,5.0,40,0.00,,,0.00,0,Wunderground v.1.15,2013-06-02 18:34:00,
2013-06-02 13:35:00,59.2,34.9,29.84,NW,318,2.0,5.0,40,0.00,,,0.00,0,Wunderground v.1.15,2013-06-02 18:35:00,
2013-06-02 13:37:00,59.4,35.7,29.84,NW,304,0.0,5.0,41,0.00,,,0.00,0,Wunderground v.1.15,2013-06-02 18:37:00,
2013-06-02 13:38:00,59.7,35.3,29.84,NW,304,3.0,5.0,40,0.00,,,0.00,0,Wunderground v.1.15,2013-06-02 18:38:00,
2013-06-02 13:39:00,59.8,34.8,29.84,NW,304,0.0,5.0,39,0.00,,,0.00,0,Wunderground v.1.15,2013-06-02 18:39:00,
2013-06-02 13:40:00,59.8,34.8,29.84,NNW,340,2.0,2.0,39,0.00,,,0.00,0,Wunderground v.1.15,2013-06-02 18:40:00,
2013-06-02 13:42:00,59.7,34.0,29.84,West,280,3.0,8.0,38,0.00,,,0.00,0,Wunderground v.1.15,2013-06-02 18:42:00,
2013-06-02 13:43:00,59.4,33.8,29.84,West,280,0.0,8.0,38,0.00,,,0.00,0,Wunderground v.1.15,2013-06-02 18:43:00,
2013-06-02 13:44:00,59.4,33.8,29.84,West,280,0.0,8.0,38,0.00,,,0.00,0,Wunderground v.1.15,2013-06-02 18:44:00,
2013-06-02 13:45:00,59.3,33.7,29.84,WNW,302,4.0,8.0,38,0.00,,,0.00,0,Wunderground v.1.15,2013-06-02 18:45:00,
2013-06-02 13:47:00,59.4,33.8,29.84,NNE,33,2.0,8.0,38,0.00,,,0.00,0,Wunderground v.1.15,2013-06-02 18:47:00,
2013-06-02 13:48:00,59.6,34.6,29.84,NNE,29,2.0,8.0,39,0.00,,,0.00,0,Wunderground v.1.15,2013-06-02 18:48:00,
2013-06-02 13:49:00,59.8,34.1,29.84,NNE,29,1.0,8.0,38,0.00,,,0.00,0,Wunderground v.1.15,2013-06-02 18:49:00,
2013-06-02 13:50:00,59.8,34.1,29.84,NNE,18,2.0,5.0,38,0.00,,,0.00,0,Wunderground v.1.15,2013-06-02 18:50:00,
2013-06-02 13:53:00,59.6,33.9,29.84,NNE,12,2.0,5.0,38,0.00,,,0.00,0,Wunderground v.1.15,2013-06-02 18:53:00,
2013-06-02 13:54:00,59.7,34.0,29.84,NNW,331,3.0,6.0,38,0.00,,,0.00,0,Wunderground v.1.15,2013-06-02 18:54:00,
2013-06-02 13:55:00,59.8,34.1,29.84,NNW,331,0.0,6.0,38,0.00,,,0.00,0,Wunderground v.1.15,2013-06-02 18:55:00,
2013-06-02 13:58:00,60.2,34.5,29.84,NNW,332,4.0,6.0,38,0.00,,,0.00,0,Wunderground v.1.15,2013-06-02 18:58:00,
2013-06-02 13:59:00,60.3,34.6,29.84,NNW,332,0.0,6.0,38,0.00,,,0.00,0,Wunderground v.1.15,2013-06-02 18:59:00,
2013-06-02 14:00:00,60.4,34.0,29.84,West,273,0.0,5.0,37,0.00,,,0.00,0,Wunderground v.1.15,2013-06-02 19:00:00,
2013-06-02 14:03:00,60.4,34.7,29.84,West,268,5.0,6.0,38,0.00,,,0.00,0,Wunderground v.1.15,2013-06-02 19:03:00,
2013-06-02 14:04:00,60.4,35.9,29.84,NW,310,5.0,7.0,40,0.00,,,0.00,0,Wunderground v.1.15,2013-06-02 19:04:00,
2013-06-02 14:06:00,60.6,34.8,29.84,WNW,302,5.0,7.0,38,0.00,,,0.00,0,Wunderground v.1.15,2013-06-02 19:06:00,
2013-06-02 14:08:00,60.3,33.9,29.84,NW,325,1.0,9.0,37,0.00,,,0.00,0,Wunderground v.1.15,2013-06-02 19:08:00,
2013-06-02 14:09:00,60.3,33.9,29.83,NW,325,1.0,9.0,37,0.00,,,0.00,0,Wunderground v.1.15,2013-06-02 19:09:00,
2013-06-02 14:10:00,60.3,34.6,29.84,WNW,283,6.0,9.0,38,0.00,,,0.00,0,Wunderground v.1.15,2013-06-02 19:10:00,
2013-06-02 14:11:00,60.4,34.7,29.84,WNW,286,3.0,5.0,38,0.00,,,0.00,0,Wunderground v.1.15,2013-06-02 19:11:00,
2013-06-02 14:13:00,60.5,34.7,29.84,WNW,287,0.0,5.0,38,0.00,,,0.00,0,Wunderground v.1.15,2013-06-02 19:13:00,
2013-06-02 14:14:00,60.7,35.6,29.84,WNW,282,3.0,5.0,39,0.00,,,0.00,0,Wunderground v.1.15,2013-06-02 19:14:00,
2013-06-02 14:15:00,60.7,34.9,29.84,WNW,282,3.0,5.0,38,0.00,,,0.00,0,Wunderground v.1.15,2013-06-02 19:15:00,
2013-06-02 14:16:00,60.8,35.0,29.84,West,281,7.0,7.0,38,0.00,,,0.00,0,Wunderground v.1.15,2013-06-02 19:16:00,
2013-06-02 14:18:00,60.8,35.0,29.84,West,280,1.0,10.0,38,0.00,,,0.00,0,Wunderground v.1.15,2013-06-02 19:18:00,
2013-06-02 14:20:00,60.8,35.0,29.84,WNW,303,0.0,10.0,38,0.00,,,0.00,0,Wunderground v.1.15,2013-06-02 19:20:00,
2013-06-02 14:21:00,60.9,35.1,29.84,NW,304,0.0,3.0,38,0.00,,,0.00,0,Wunderground v.1.15,2013-06-02 19:21:00,
2013-06-02 14:23:00,61.1,35.3,29.84,WNW,285,6.0,6.0,38,0.00,,,0.00,0,Wunderground v.1.15,2013-06-02 19:23:00,
2013-06-02 14:25:00,61.0,33.8,29.84,WNW,283,4.0,6.0,36,0.00,,,0.00,0,Wunderground v.1.15,2013-06-02 19:25:00,
2013-06-02 14:26:00,60.9,35.1,29.84,North,1,6.0,6.0,38,0.00,,,0.00,0,Wunderground v.1.15,2013-06-02 19:26:00,
2013-06-02 14:28:00,61.0,33.8,29.84,NW,310,3.0,7.0,36,0.00,,,0.00,0,Wunderground v.1.15,2013-06-02 19:28:00,
2013-06-02 14:30:00,61.0,35.2,29.84,WNW,288,1.0,7.0,38,0.00,,,0.00,0,Wunderground v.1.15,2013-06-02 19:30:00,
2013-06-02 14:31:00,61.1,35.3,29.84,WNW,286,2.0,6.0,38,0.00,,,0.00,0,Wunderground v.1.15,2013-06-02 19:31:00,
2013-06-02 14:33:00,61.3,35.5,29.84,WNW,286,2.0,6.0,38,0.00,,,0.00,0,Wunderground v.1.15,2013-06-02 19:33:00,
2013-06-02 14:35:00,61.3,34.8,29.84,WNW,296,0.0,6.0,37,0.00,,,0.00,0,Wunderground v.1.15,2013-06-02 19:35:00,
2013-06-02 14:36:00,61.4,34.9,29.84,WNW,296,0.0,6.0,37,0.00,,,0.00,0,Wunderground v.1.15,2013-06-02 19:36:00,
2013-06-02 14:38:00,61.7,35.8,29.84,WNW,296,4.0,6.0,38,0.00,,,0.00,0,Wunderground v.1.15,2013-06-02 19:38:00,
2013-06-02 14:40:00,62.0,34.7,29.84,North,5,2.0,4.0,36,0.00,,,0.00,0,Wunderground v.1.15,2013-06-02 19:40:00,
2013-06-02 14:41:00,62.0,34.7,29.84,North,5,2.0,4.0,36,0.00,,,0.00,0,Wunderground v.1.15,2013-06-02 19:41:00,
2013-06-02 14:43:00,61.8,33.8,29.84,NNW,331,0.0,7.0,35,0.00,,,0.00,0,Wunderground v.1.15,2013-06-02 19:43:00,
2013-06-02 14:45:00,61.8,34.5,29.83,West,269,3.0,7.0,36,0.00,,,0.00,0,Wunderground v.1.15,2013-06-02 19:45:00,
2013-06-02 14:46:00,61.8,34.5,29.83,West,269,0.0,7.0,36,0.00,,,0.00,0,Wunderground v.1.15,2013-06-02 19:46:00,
2013-06-02 14:48:00,61.7,35.8,29.83,WNW,282,4.0,7.0,38,0.00,,,0.00,0,Wunderground v.1.15,2013-06-02 19:48:00,
2013-06-02 14:50:00,61.6,34.4,29.83,WNW,283,0.0,2.0,36,0.00,,,0.00,0,Wunderground v.1.15,2013-06-02 19:50:00,
2013-06-02 14:51:00,61.6,34.4,29.83,WNW,283,0.0,2.0,36,0.00,,,0.00,0,Wunderground v.1.15,2013-06-02 19:51:00,
2013-06-02 14:53:00,61.6,35.1,29.83,NNW,346,4.0,6.0,37,0.00,,,0.00,0,Wunderground v.1.15,2013-06-02 19:53:00,
2013-06-02 14:56:00,61.7,33.7,29.84,North,0,3.0,7.0,35,0.00,,,0.00,0,Wunderground v.1.15,2013-06-02 19:56:00,
2013-06-02 14:59:00,61.8,34.5,29.84,NNW,347,6.0,9.0,36,0.00,,,0.00,0,Wunderground v.1.15,2013-06-02 19:59:00,
2013-06-02 15:01:00,61.8,33.8,29.84,North,0,3.0,5.0,35,0.00,,,0.00,0,Wunderground v.1.15,2013-06-02 20:01:00,
2013-06-02 15:02:00,61.8,33.8,29.84,NNW,348,1.0,6.0,35,0.00,,,0.00,0,Wunderground v.1.15,2013-06-02 20:02:00,
2013-06-02 15:04:00,61.7,35.1,29.83,NNW,347,0.0,6.0,37,0.00,,,0.00,0,Wunderground v.1.15,2013-06-02 20:04:00,
2013-06-02 15:06:00,62.0,36.1,29.83,NNW,348,1.0,6.0,38,0.00,,,0.00,0,Wunderground v.1.15,2013-06-02 20:06:00,
2013-06-02 15:07:00,62.3,36.4,29.83,North,358,0.0,6.0,38,0.00,,,0.00,0,Wunderground v.1.15,2013-06-02 20:07:00,
2013-06-02 15:09:00,62.5,35.2,29.83,NNW,341,1.0,6.0,36,0.00,,,0.00,0,Wunderground v.1.15,2013-06-02 20:09:00,
2013-06-02 15:11:00,62.6,35.9,29.83,NNE,31,4.0,5.0,37,0.00,,,0.00,0,Wunderground v.1.15,2013-06-02 20:11:00,
2013-06-02 15:12:00,62.7,36.0,29.83,NW,316,3.0,7.0,37,0.00,,,0.00,0,Wunderground v.1.15,2013-06-02 20:12:00,
2013-06-02 15:14:00,62.6,35.3,29.83,NNW,340,3.0,7.0,36,0.00,,,0.00,0,Wunderground v.1.15,2013-06-02 20:14:00,
2013-06-02 15:16:00,62.5,35.2,29.83,NNW,339,1.0,7.0,36,0.00,,,0.00,0,Wunderground v.1.15,2013-06-02 20:16:00,
2013-06-02 15:17:00,62.4,35.1,29.83,NNW,339,2.0,7.0,36,0.00,,,0.00,0,Wunderground v.1.15,2013-06-02 20:17:00,
2013-06-02 15:19:00,62.4,35.1,29.84,North,0,0.0,7.0,36,0.00,,,0.00,0,Wunderground v.1.15,2013-06-02 20:19:00,
2013-06-02 15:21:00,62.6,34.5,29.83,North,1,3.0,4.0,35,0.00,,,0.00,0,Wunderground v.1.15,2013-06-02 20:21:00,
2013-06-02 15:22:00,62.5,34.5,29.83,NNW,332,0.0,7.0,35,0.00,,,0.00,0,Wunderground v.1.15,2013-06-02 20:22:00,
2013-06-02 15:24:00,62.5,34.5,29.83,NNW,332,3.0,7.0,35,0.00,,,0.00,0,Wunderground v.1.15,2013-06-02 20:24:00,
2013-06-02 15:26:00,62.5,35.2,29.83,NNW,332,0.0,7.0,36,0.00,,,0.00,0,Wunderground v.1.15,2013-06-02 20:26:00,
2013-06-02 15:27:00,62.5,35.2,29.83,NNW,332,0.0,7.0,36,0.00,,,0.00,0,Wunderground v.1.15,2013-06-02 20:27:00,
2013-06-02 15:28:00,62.7,36.7,29.83,West,276,4.0,7.0,38,0.00,,,0.00,0,Wunderground v.1.15,2013-06-02 20:28:00,
2013-06-02 15:29:00,62.7,35.3,29.83,WNW,285,2.0,7.0,36,0.00,,,0.00,0,Wunderground v.1.15,2013-06-02 20:29:00,
2013-06-02 15:31:00,62.6,35.3,29.83,NW,322,3.0,6.0,36,0.00,,,0.00,0,Wunderground v.1.15,2013-06-02 20:31:00,
2013-06-02 15:32:00,62.6,35.3,29.82,WNW,302,3.0,6.0,36,0.00,,,0.00,0,Wunderground v.1.15,2013-06-02 20:32:00,
2013-06-02 15:33:00,62.4,35.8,29.82,WNW,286,2.0,6.0,37,0.00,,,0.00,0,Wunderground v.1.15,2013-06-02 20:33:00,
2013-06-02 15:34:00,62.4,35.8,29.83,NNW,329,2.0,6.0,37,0.00,,,0.00,0,Wunderground v.1.15,2013-06-02 20:34:00,
2013-06-02 15:36:00,62.5,35.2,29.82,NNW,328,4.0,6.0,36,0.00,,,0.00,0,Wunderground v.1.15,2013-06-02 20:36:00,
2013-06-02 15:37:00,62.4,34.4,29.82,NW,325,4.0,6.0,35,0.00,,,0.00,0,Wunderground v.1.15,2013-06-02 20:37:00,
2013-06-02 15:38:00,62.3,34.3,29.82,NW,325,0.0,6.0,35,0.00,,,0.00,0,Wunderground v.1.15,2013-06-02 20:38:00,
2013-06-02 15:39:00,62.4,36.4,29.82,NW,325,0.0,6.0,38,0.00,,,0.00,0,Wunderground v.1.15,2013-06-02 20:39:00,
2013-06-02 15:41:00,62.6,36.6,29.82,NW,312,2.0,3.0,38,0.00,,,0.00,0,Wunderground v.1.15,2013-06-02 20:41:00,
2013-06-02 15:42:00,62.7,36.7,29.82,NW,312,0.0,3.0,38,0.00,,,0.00,0,Wunderground v.1.15,2013-06-02 20:42:00,
2013-06-02 15:43:00,62.7,35.3,29.82,WNW,288,4.0,7.0,36,0.00,,,0.00,0,Wunderground v.1.15,2013-06-02 20:43:00,
2013-06-02 15:44:00,62.6,35.3,29.82,WNW,288,0.0,7.0,36,0.00,,,0.00,0,Wunderground v.1.15,2013-06-02 20:44:00,
2013-06-02 15:46:00,62.8,36.1,29.82,WNW,288,2.0,7.0,37,0.00,,,0.00,0,Wunderground v.1.15,2013-06-02 20:46:00,
2013-06-02 15:47:00,62.8,36.8,29.82,WNW,288,2.0,7.0,38,0.00,,,0.00,0,Wunderground v.1.15,2013-06-02 20:47:00,
2013-06-02 15:48:00,62.9,35.5,29.82,WNW,300,3.0,7.0,36,0.00,,,0.00,0,Wunderground v.1.15,2013-06-02 20:48:00,
2013-06-02 15:49:00,62.9,36.2,29.82,WNW,293,2.0,7.0,37,0.00,,,0.00,0,Wunderground v.1.15,2013-06-02 20:49:00,
2013-06-02 15:52:00,62.9,36.9,29.82,WNW,292,1.0,5.0,38,0.00,,,0.00,0,Wunderground v.1.15,2013-06-02 20:52:00,
2013-06-02 15:53:00,63.0,34.9,29.82,NNW,330,3.0,7.0,35,0.00,,,0.00,0,Wunderground v.1.15,2013-06-02 20:53:00,
2013-06-02 15:54:00,62.9,34.8,29.82,NW,312,2.0,7.0,35,0.00,,,0.00,0,Wunderground v.1.15,2013-06-02 20:54:00,
2013-06-02 15:57:00,62.5,35.2,29.82,NNW,336,0.0,7.0,36,0.00,,,0.00,0,Wunderground v.1.15,2013-06-02 20:57:00,
2013-06-02 15:58:00,62.5,36.5,29.82,WNW,302,3.0,7.0,38,0.00,,,0.00,0,Wunderground v.1.15,2013-06-02 20:58:00,
2013-06-02 15:59:00,62.5,35.2,29.82,WNW,292,2.0,7.0,36,0.00,,,0.00,0,Wunderground v.1.15,2013-06-02 20:59:00,
2013-06-02 16:02:00,62.4,35.8,29.82,WNW,294,2.0,3.0,37,0.00,,,0.00,0,Wunderground v.1.15,2013-06-02 21:02:00,
2013-06-02 16:03:00,62.4,35.8,29.82,WNW,294,2.0,3.0,37,0.00,,,0.00,0,Wunderground v.1.15,2013-06-02 21:03:00,
2013-06-02 16:04:00,62.5,36.5,29.82,WNW,295,1.0,4.0,38,0.00,,,0.00,0,Wunderground v.1.15,2013-06-02 21:04:00,
2013-06-02 16:07:00,62.6,35.3,29.82,WNW,295,0.0,4.0,36,0.00,,,0.00,0,Wunderground v.1.15,2013-06-02 21:07:00,
2013-06-02 16:08:00,62.6,35.3,29.82,WNW,295,1.0,4.0,36,0.00,,,0.00,0,Wunderground v.1.15,2013-06-02 21:08:00,
2013-06-02 16:09:00,62.6,35.9,29.83,WNW,295,0.0,4.0,37,0.00,,,0.00,0,Wunderground v.1.15,2013-06-02 21:09:00,
2013-06-02 16:12:00,62.6,35.3,29.82,West,281,4.0,6.0,36,0.00,,,0.00,0,Wunderground v.1.15,2013-06-02 21:12:00,
2013-06-02 16:13:00,62.5,35.2,29.82,NNW,334,5.0,7.0,36,0.00,,,0.00,0,Wunderground v.1.15,2013-06-02 21:13:00,
2013-06-02 16:14:00,62.3,34.3,29.82,NW,325,3.0,7.0,35,0.00,,,0.00,0,Wunderground v.1.15,2013-06-02 21:14:00,
2013-06-02 16:15:00,62.2,34.2,29.82,NNE,20,2.0,7.0,35,0.00,,,0.00,0,Wunderground v.1.15,2013-06-02 21:15:00,
2013-06-02 16:17:00,61.9,35.3,29.82,NNW,348,0.0,7.0,37,0.00,,,0.00,0,Wunderground v.1.15,2013-06-02 21:17:00,
2013-06-02 16:18:00,61.9,33.9,29.82,NW,314,5.0,7.0,35,0.00,,,0.00,0,Wunderground v.1.15,2013-06-02 21:18:00,
2013-06-02 16:19:00,61.8,33.8,29.82,WNW,290,1.0,7.0,35,0.00,,,0.00,0,Wunderground v.1.15,2013-06-02 21:19:00,
2013-06-02 16:23:00,61.7,33.7,29.81,North,9,7.0,9.0,35,0.00,,,0.00,0,Wunderground v.1.15,2013-06-02 21:23:00,
2013-06-02 16:24:00,61.6,33.7,29.82,WNW,298,0.0,9.0,35,0.00,,,0.00,0,Wunderground v.1.15,2013-06-02 21:24:00,
2013-06-02 16:25:00,61.6,33.7,29.82,WNW,298,0.0,9.0,35,0.00,,,0.00,0,Wunderground v.1.15,2013-06-02 21:25:00,
2013-06-02 16:28:00,61.9,36.0,29.82,WNW,291,1.0,9.0,38,0.00,,,0.00,0,Wunderground v.1.15,2013-06-02 21:28:00,
2013-06-02 16:29:00,62.0,35.4,29.82,WNW,291,1.0,9.0,37,0.00,,,0.00,0,Wunderground v.1.15,2013-06-02 21:29:00,
2013-06-02 16:30:00,62.0,34.7,29.82,WNW,291,1.0,9.0,36,0.00,,,0.00,0,Wunderground v.1.15,2013-06-02 21:30:00,
2013-06-02 16:33:00,62.0,34.0,29.81,WNW,291,0.0,4.0,35,0.00,,,0.00,0,Wunderground v.1.15,2013-06-02 21:33:00,
2013-06-02 16:34:00,62.1,34.8,29.81,WNW,282,5.0,6.0,36,0.00,,,0.00,0,Wunderground v.1.15,2013-06-02 21:34:00,
2013-06-02 16:35:00,62.2,36.3,29.82,West,281,3.0,6.0,38,0.00,,,0.00,0,Wunderground v.1.15,2013-06-02 21:35:00,
2013-06-02 16:38:00,62.3,34.3,29.81,North,359,3.0,7.0,35,0.00,,,0.00,0,Wunderground v.1.15,2013-06-02 21:38:00,
2013-06-02 16:39:00,62.2,34.2,29.82,North,0,0.0,7.0,35,0.00,,,0.00,0,Wunderground v.1.15,2013-06-02 21:39:00,
2013-06-02 16:40:00,62.2,34.2,29.82,North,0,1.0,9.0,35,0.00,,,0.00,0,Wunderground v.1.15,2013-06-02 21:40:00,
2013-06-02 16:43:00,62.0,34.0,29.81,NNW,344,4.0,8.0,35,0.00,,,0.00,0,Wunderground v.1.15,2013-06-02 21:43:00,
2013-06-02 16:44:00,62.0,33.3,29.82,North,1,3.0,8.0,34,0.00,,,0.00,0,Wunderground v.1.15,2013-06-02 21:44:00,
2013-06-02 16:45:00,62.0,34.0,29.82,NW,318,2.0,8.0,35,0.00,,,0.00,0,Wunderground v.1.15,2013-06-02 21:45:00,
2013-06-02 16:48:00,61.9,33.9,29.82,NW,315,0.0,8.0,35,0.00,,,0.00,0,Wunderground v.1.15,2013-06-02 21:48:00,
2013-06-02 16:49:00,61.9,35.3,29.81,WNW,287,5.0,8.0,37,0.00,,,0.00,0,Wunderground v.1.15,2013-06-02 21:49:00,
2013-06-02 16:50:00,62.0,33.3,29.81,West,271,4.0,8.0,34,0.00,,,0.00,0,Wunderground v.1.15,2013-06-02 21:50:00,
2013-06-02 16:53:00,61.8,33.1,29.81,WNW,283,0.0,10.0,34,0.00,,,0.00,0,Wunderground v.1.15,2013-06-02 21:53:00,
2013-06-02 16:54:00,61.9,33.9,29.82,WNW,283,2.0,10.0,35,0.00,,,0.00,0,Wunderground v.1.15,2013-06-02 21:54:00,
2013-06-02 16:55:00,61.9,33.9,29.81,WNW,283,1.0,10.0,35,0.00,,,0.00,0,Wunderground v.1.15,2013-06-02 21:55:00,
2013-06-02 16:58:00,62.0,34.0,29.81,NNE,30,0.0,10.0,35,0.00,,,0.00,0,Wunderground v.1.15,2013-06-02 21:58:00,
2013-06-02 16:59:00,62.1,33.4,29.81,NNE,30,1.0,10.0,34,0.00,,,0.00,0,Wunderground v.1.15,2013-06-02 21:59:00,
2013-06-02 17:00:00,62.1,33.4,29.81,NNE,30,0.0,10.0,34,0.00,,,0.00,0,Wunderground v.1.15,2013-06-02 22:00:00,
2013-06-02 17:03:00,62.2,32.0,29.81,WNW,286,0.0,6.0,32,0.00,,,0.00,0,Wunderground v.1.15,2013-06-02 22:03:00,
2013-06-02 17:04:00,62.2,32.0,29.81,WNW,286,0.0,6.0,32,0.00,,,0.00,0,Wunderground v.1.15,2013-06-02 22:04:00,
2013-06-02 17:05:00,62.1,33.4,29.81,WNW,286,2.0,6.0,34,0.00,,,0.00,0,Wunderground v.1.15,2013-06-02 22:05:00,
2013-06-02 17:06:00,62.1,32.6,29.81,WNW,287,1.0,6.0,33,0.00,,,0.00,0,Wunderground v.1.15,2013-06-02 22:06:00,
2013-06-02 17:08:00,62.3,33.6,29.81,West,272,3.0,7.0,34,0.00,,,0.00,0,Wunderground v.1.15,2013-06-02 22:08:00,
2013-06-02 17:09:00,62.4,33.6,29.81,West,278,6.0,7.0,34,0.00,,,0.00,0,Wunderground v.1.15,2013-06-02 22:09:00,
2013-06-02 17:10:00,62.4,32.9,29.81,West,275,2.0,7.0,33,0.00,,,0.00,0,Wunderground v.1.15,2013-06-02 22:10:00,
2013-06-02 17:11:00,62.3,32.0,29.81,West,276,1.0,4.0,32,0.00,,,0.00,0,Wunderground v.1.15,2013-06-02 22:11:00,
2013-06-02 17:13:00,62.2,32.0,29.81,West,276,0.0,4.0,32,0.00,,,0.00,0,Wunderground v.1.15,2013-06-02 22:13:00,
2013-06-02 17:14:00,62.2,32.7,29.81,West,272,2.0,6.0,33,0.00,,,0.00,0,Wunderground v.1.15,2013-06-02 22:14:00,
2013-06-02 17:15:00,62.2,32.7,29.82,West,268,3.0,9.0,33,0.00,,,0.00,0,Wunderground v.1.15,2013-06-02 22:15:00,
2013-06-02 17:16:00,62.2,32.7,29.81,West,268,1.0,9.0,33,0.00,,,0.00,0,Wunderground v.1.15,2013-06-02 22:16:00,
2013-06-02 17:18:00,62.3,32.8,29.81,West,270,1.0,9.0,33,0.00,,,0.00,0,Wunderground v.1.15,2013-06-02 22:18:00,
2013-06-02 17:19:00,62.4,34.4,29.81,West,270,3.0,9.0,35,0.00,,,0.00,0,Wunderground v.1.15,2013-06-02 22:19:00,
2013-06-02 17:20:00,62.4,34.4,29.81,West,270,0.0,0.0,35,0.00,,,0.00,0,Wunderground v.1.15,2013-06-02 22:20:00,
2013-06-02 17:21:00,62.5,33.7,29.81,West,270,0.0,2.0,34,0.00,,,0.00,0,Wunderground v.1.15,2013-06-02 22:21:00,
2013-06-02 17:23:00,62.6,33.1,29.81,West,270,0.0,2.0,33,0.00,,,0.00,0,Wunderground v.1.15,2013-06-02 22:23:00,
2013-06-02 17:24:00,62.6,33.8,29.81,West,270,0.0,2.0,34,0.00,,,0.00,0,Wunderground v.1.15,2013-06-02 22:24:00,
2013-06-02 17:25:00,62.7,32.4,29.80,West,270,2.0,3.0,32,0.00,,,0.00,0,Wunderground v.1.15,2013-06-02 22:25:00,
2013-06-02 17:26:00,62.6,32.3,29.81,West,270,2.0,3.0,32,0.00,,,0.00,0,Wunderground v.1.15,2013-06-02 22:26:00,
2013-06-02 17:27:00,62.6,33.1,29.81,West,268,3.0,7.0,33,0.00,,,0.00,0,Wunderground v.1.15,2013-06-02 22:27:00,
2013-06-02 17:28:00,62.5,32.2,29.81,West,269,0.0,7.0,32,0.00,,,0.00,0,Wunderground v.1.15,2013-06-02 22:28:00,
2013-06-02 17:29:00,62.4,32.1,29.80,West,269,0.0,7.0,32,0.00,,,0.00,0,Wunderground v.1.15,2013-06-02 22:29:00,
2013-06-02 17:30:00,62.4,33.6,29.80,West,269,0.0,1.0,34,0.00,,,0.00,0,Wunderground v.1.15,2013-06-02 22:30:00,
2013-06-02 17:31:00,62.4,33.6,29.81,West,269,2.0,2.0,34,0.00,,,0.00,0,Wunderground v.1.15,2013-06-02 22:31:00,
2013-06-02 17:32:00,62.5,34.5,29.81,West,270,2.0,3.0,35,0.00,,,0.00,0,Wunderground v.1.15,2013-06-02 22:32:00,
2013-06-02 17:33:00,62.6,33.8,29.81,West,271,2.0,5.0,34,0.00,,,0.00,0,Wunderground v.1.15,2013-06-02 22:33:00,
2013-06-02 17:35:00,62.6,33.8,29.80,West,270,6.0,7.0,34,0.00,,,0.00,0,Wunderground v.1.15,2013-06-02 22:35:00,
2013-06-02 17:36:00,62.6,33.8,29.81,West,270,1.0,7.0,34,0.00,,,0.00,0,Wunderground v.1.15,2013-06-02 22:36:00,
2013-06-02 17:37:00,62.6,35.3,29.81,West,270,1.0,7.0,36,0.00,,,0.00,0,Wunderground v.1.15,2013-06-02 22:37:00,
2013-06-02 17:38:00,62.7,33.9,29.81,West,270,4.0,7.0,34,0.00,,,0.00,0,Wunderground v.1.15,2013-06-02 22:38:00,
2013-06-02 17:40:00,62.7,34.6,29.80,West,271,2.0,7.0,35,0.00,,,0.00,0,Wunderground v.1.15,2013-06-02 22:40:00,
2013-06-02 17:41:00,62.8,34.7,29.81,West,271,3.0,4.0,35,0.00,,,0.00,0,Wunderground v.1.15,2013-06-02 22:41:00,
2013-06-02 17:42:00,62.8,34.7,29.80,West,272,5.0,5.0,35,0.00,,,0.00,0,Wunderground v.1.15,2013-06-02 22:42:00,
2013-06-02 17:43:00,62.8,33.2,29.80,West,270,5.0,8.0,33,0.00,,,0.00,0,Wunderground v.1.15,2013-06-02 22:43:00,
2013-06-02 17:45:00,62.6,33.1,29.81,West,268,3.0,8.0,33,0.00,,,0.00,0,Wunderground v.1.15,2013-06-02 22:45:00,
2013-06-02 17:46:00,62.6,33.1,29.80,West,269,8.0,8.0,33,0.00,,,0.00,0,Wunderground v.1.15,2013-06-02 22:46:00,
2013-06-02 17:47:00,62.5,32.2,29.80,West,272,3.0,8.0,32,0.00,,,0.00,0,Wunderground v.1.15,2013-06-02 22:47:00,
2013-06-02 17:48:00,62.4,33.6,29.80,West,271,0.0,8.0,34,0.00,,,0.00,0,Wunderground v.1.15,2013-06-02 22:48:00,
2013-06-02 17:50:00,62.5,34.5,29.80,West,274,0.0,0.0,35,0.00,,,0.00,0,Wunderground v.1.15,2013-06-02 22:50:00,
2013-06-02 17:51:00,62.6,34.5,29.80,West,274,1.0,2.0,35,0.00,,,0.00,0,Wunderground v.1.15,2013-06-02 22:51:00,
2013-06-02 17:52:00,62.6,34.5,29.80,West,274,1.0,2.0,35,0.00,,,0.00,0,Wunderground v.1.15,2013-06-02 22:52:00,
2013-06-02 17:53:00,62.7,33.9,29.80,West,274,3.0,5.0,34,0.00,,,0.00,0,Wunderground v.1.15,2013-06-02 22:53:00,
2013-06-02 17:55:00,62.7,32.4,29.80,West,274,0.0,5.0,32,0.00,,,0.00,0,Wunderground v.1.15,2013-06-02 22:55:00,
2013-06-02 17:56:00,62.7,33.9,29.80,West,274,2.0,5.0,34,0.00,,,0.00,0,Wunderground v.1.15,2013-06-02 22:56:00,
2013-06-02 17:57:00,62.7,33.2,29.80,West,274,1.0,5.0,33,0.00,,,0.00,0,Wunderground v.1.15,2013-06-02 22:57:00,
2013-06-02 17:58:00,62.8,34.0,29.80,West,274,2.0,5.0,34,0.00,,,0.00,0,Wunderground v.1.15,2013-06-02 22:58:00,
2013-06-02 18:00:00,62.9,34.8,29.80,West,274,2.0,2.0,35,0.00,,,0.00,0,Wunderground v.1.15,2013-06-02 23:00:00,
2013-06-02 18:01:00,63.0,35.6,29.80,West,274,0.0,3.0,36,0.00,,,0.00,0,Wunderground v.1.15,2013-06-02 23:01:00,
2013-06-02 18:02:00,63.1,35.7,29.80,West,274,1.0,3.0,36,0.00,,,0.00,0,Wunderground v.1.15,2013-06-02 23:02:00,
2013-06-02 18:03:00,63.1,35.0,29.80,West,274,0.0,3.0,35,0.00,,,0.00,0,Wunderground v.1.15,2013-06-02 23:03:00,
2013-06-02 18:05:00,63.1,33.5,29.80,West,274,0.0,4.0,33,0.00,,,0.00,0,Wunderground v.1.15,2013-06-02 23:05:00,
2013-06-02 18:07:00,63.2,34.3,29.81,West,274,0.0,4.0,34,0.00,,,0.00,0,Wunderground v.1.15,2013-06-02 23:07:00,
2013-06-02 18:08:00,63.2,34.3,29.80,West,270,4.0,4.0,34,0.00,,,0.00,0,Wunderground v.1.15,2013-06-02 23:08:00,
2013-06-02 18:10:00,63.1,35.0,29.80,North,0,0.0,1.0,35,0.00,,,0.00,0,Wunderground v.1.15,2013-06-02 23:10:00,
2013-06-02 18:12:00,63.0,33.4,29.80,North,0,0.0,1.0,33,0.00,,,0.00,0,Wunderground v.1.15,2013-06-02 23:12:00,
2013-06-02 18:13:00,63.0,34.2,29.80,North,0,0.0,1.0,34,0.00,,,0.00,0,Wunderground v.1.15,2013-06-02 23:13:00,
2013-06-02 18:14:00,63.0,34.2,29.80,North,0,1.0,1.0,34,0.00,,,0.00,0,Wunderground v.1.15,2013-06-02 23:14:00,
2013-06-02 18:15:00,62.9,33.3,29.80,North,0,2.0,4.0,33,0.00,,,0.00,0,Wunderground v.1.15,2013-06-02 23:15:00,
2013-06-02 18:17:00,62.7,33.2,29.80,NNW,339,0.0,4.0,33,0.00,,,0.00,0,Wunderground v.1.15,2013-06-02 23:17:00,
2013-06-02 18:18:00,62.7,33.9,29.80,NNW,339,0.0,4.0,34,0.00,,,0.00,0,Wunderground v.1.15,2013-06-02 23:18:00,
2013-06-02 18:19:00,62.6,33.8,29.80,NNW,329,2.0,4.0,34,0.00,,,0.00,0,Wunderground v.1.15,2013-06-02 23:19:00,
2013-06-02 18:21:00,62.6,33.8,29.80,NNW,331,0.0,1.0,34,0.00,,,0.00,0,Wunderground v.1.15,2013-06-02 23:21:00,
2013-06-02 18:22:00,62.5,33.7,29.80,NNW,331,0.0,2.0,34,0.00,,,0.00,0,Wunderground v.1.15,2013-06-02 23:22:00,
2013-06-02 18:23:00,62.6,33.8,29.80,NNW,331,1.0,4.0,34,0.00,,,0.00,0,Wunderground v.1.15,2013-06-02 23:23:00,
2013-06-02 18:24:00,62.6,33.1,29.80,NNW,331,0.0,4.0,33,0.00,,,0.00,0,Wunderground v.1.15,2013-06-02 23:24:00,
2013-06-02 18:26:00,62.6,33.8,29.80,NNW,331,0.0,4.0,34,0.00,,,0.00,0,Wunderground v.1.15,2013-06-02 23:26:00,
2013-06-02 18:27:00,62.6,34.5,29.79,NNW,331,0.0,4.0,35,0.00,,,0.00,0,Wunderground v.1.15,2013-06-02 23:27:00,
2013-06-02 18:28:00,62.7,34.6,29.79,NNW,331,0.0,4.0,35,0.00,,,0.00,0,Wunderground v.1.15,2013-06-02 23:28:00,
2013-06-02 18:29:00,62.7,33.9,29.79,NNW,331,1.0,4.0,34,0.00,,,0.00,0,Wunderground v.1.15,2013-06-02 23:29:00,
2013-06-02 18:31:00,62.8,34.0,29.79,NNW,331,0.0,1.0,34,0.00,,,0.00,0,Wunderground v.1.15,2013-06-02 23:31:00,
2013-06-02 18:32:00,62.9,35.5,29.80,NNW,331,0.0,1.0,36,0.00,,,0.00,0,Wunderground v.1.15,2013-06-02 23:32:00,
2013-06-02 18:33:00,62.9,35.5,29.79,NNW,331,1.0,2.0,36,0.00,,,0.00,0,Wunderground v.1.15,2013-06-02 23:33:00,
2013-06-02 18:34:00,63.0,34.9,29.80,NW,325,4.0,5.0,35,0.00,,,0.00,0,Wunderground v.1.15,2013-06-02 23:34:00,
2013-06-02 18:36:00,63.0,34.2,29.79,NW,325,1.0,5.0,34,0.00,,,0.00,0,Wunderground v.1.15,2013-06-02 23:36:00,
2013-06-02 18:37:00,63.0,34.9,29.80,NW,325,1.0,5.0,35,0.00,,,0.00,0,Wunderground v.1.15,2013-06-02 23:37:00,
2013-06-02 18:38:00,63.0,34.9,29.80,NW,314,2.0,5.0,35,0.00,,,0.00,0,Wunderground v.1.15,2013-06-02 23:38:00,
2013-06-02 18:39:00,63.0,34.9,29.80,NW,313,0.0,5.0,35,0.00,,,0.00,0,Wunderground v.1.15,2013-06-02 23:39:00,
2013-06-02 18:41:00,63.0,34.2,29.79,NW,313,2.0,3.0,34,0.00,,,0.00,0,Wunderground v.1.15,2013-06-02 23:41:00,
2013-06-02 18:42:00,63.1,35.7,29.79,NW,313,0.0,3.0,36,0.00,,,0.00,0,Wunderground v.1.15,2013-06-02 23:42:00,
2013-06-02 18:43:00,63.1,36.4,29.80,NW,314,0.0,3.0,37,0.00,,,0.00,0,Wunderground v.1.15,2013-06-02 23:43:00,
2013-06-02 18:44:00,63.2,36.5,29.80,NW,313,0.0,3.0,37,0.00,,,0.00,0,Wunderground v.1.15,2013-06-02 23:44:00,
2013-06-02 18:46:00,63.3,36.6,29.80,NW,314,0.0,3.0,37,0.00,,,0.00,0,Wunderground v.1.15,2013-06-02 23:46:00,
2013-06-02 18:47:00,63.4,36.7,29.80,NW,313,0.0,3.0,37,0.00,,,0.00,0,Wunderground v.1.15,2013-06-02 23:47:00,
2013-06-02 18:48:00,63.5,36.0,29.80,NW,313,0.0,3.0,36,0.00,,,0.00,0,Wunderground v.1.15,2013-06-02 23:48:00,
2013-06-02 18:49:00,63.5,35.3,29.80,NW,313,0.0,3.0,35,0.00,,,0.00,0,Wunderground v.1.15,2013-06-02 23:49:00,
2013-06-02 18:51:00,63.4,34.5,29.80,NW,313,0.0,0.0,34,0.00,,,0.00,0,Wunderground v.1.15,2013-06-02 23:51:00,
2013-06-02 18:53:00,63.3,35.2,29.79,NW,313,0.0,0.0,35,0.00,,,0.00,0,Wunderground v.1.15,2013-06-02 23:53:00,
2013-06-02 18:54:00,63.3,35.9,29.80,NW,313,0.0,0.0,36,0.00,,,0.00,0,Wunderground v.1.15,2013-06-02 23:54:00,
2013-06-02 18:55:00,63.3,35.9,29.80,NW,313,0.0,0.0,36,0.00,,,0.00,0,Wunderground v.1.15,2013-06-02 23:55:00,
2013-06-02 18:56:00,63.3,35.2,29.80,NW,313,0.0,1.0,35,0.00,,,0.00,0,Wunderground v.1.15,2013-06-02 23:56:00,
2013-06-02 18:58:00,63.3,34.4,29.80,NW,314,0.0,1.0,34,0.00,,,0.00,0,Wunderground v.1.15,2013-06-02 23:58:00,
2013-06-02 18:59:00,63.3,34.4,29.80,NW,313,0.0,1.0,34,0.00,,,0.00,0,Wunderground v.1.15,2013-06-02 23:59:00,
2013-06-02 19:00:00,63.3,34.4,29.80,NW,313,0.0,1.0,34,0.00,,,0.00,0,Wunderground v.1.15,2013-06-03 00:00:00,
2013-06-02 19:01:00,63.3,34.4,29.80,NW,313,0.0,2.0,34,0.00,,,0.00,0,Wunderground v.1.15,2013-06-03 00:01:00,
2013-06-02 19:03:00,63.4,35.2,29.80,NW,313,0.0,2.0,35,0.00,,,0.00,0,Wunderground v.1.15,2013-06-03 00:03:00,
2013-06-02 19:04:00,63.5,35.3,29.80,NW,313,0.0,2.0,35,0.00,,,0.00,0,Wunderground v.1.15,2013-06-03 00:04:00,
2013-06-02 19:05:00,63.5,34.6,29.79,NW,313,0.0,2.0,34,0.00,,,0.00,0,Wunderground v.1.15,2013-06-03 00:05:00,
2013-06-02 19:06:00,63.6,35.4,29.80,NW,313,0.0,2.0,35,0.00,,,0.00,0,Wunderground v.1.15,2013-06-03 00:06:00,
2013-06-02 19:08:00,63.7,35.5,29.80,NW,313,0.0,2.0,35,0.00,,,0.00,0,Wunderground v.1.15,2013-06-03 00:08:00,
2013-06-02 19:09:00,63.8,34.9,29.80,NW,314,0.0,3.0,34,0.00,,,0.00,0,Wunderground v.1.15,2013-06-03 00:09:00,
2013-06-02 19:10:00,63.8,34.1,29.79,NW,314,1.0,3.0,33,0.00,,,0.00,0,Wunderground v.1.15,2013-06-03 00:10:00,
2013-06-02 19:12:00,63.8,33.4,29.79,NW,314,0.0,3.0,32,0.00,,,0.00,0,Wunderground v.1.15,2013-06-03 00:12:00,
2013-06-02 19:13:00,63.8,33.4,29.80,NW,314,0.0,3.0,32,0.00,,,0.00,0,Wunderground v.1.15,2013-06-03 00:13:00,
2013-06-02 19:14:00,63.8,33.4,29.80,NW,314,0.0,3.0,32,0.00,,,0.00,0,Wunderground v.1.15,2013-06-03 00:14:00,
2013-06-02 19:15:00,63.8,33.4,29.80,NW,314,1.0,3.0,32,0.00,,,0.00,0,Wunderground v.1.15,2013-06-03 00:15:00,
2013-06-02 19:17:00,63.8,33.4,29.79,NW,314,0.0,3.0,32,0.00,,,0.00,0,Wunderground v.1.15,2013-06-03 00:17:00,
2013-06-02 19:18:00,63.8,33.4,29.80,NW,314,0.0,3.0,32,0.00,,,0.00,0,Wunderground v.1.15,2013-06-03 00:18:00,
2013-06-02 19:19:00,63.8,33.4,29.79,NW,314,0.0,3.0,32,0.00,,,0.00,0,Wunderground v.1.15,2013-06-03 00:19:00,
2013-06-02 19:20:00,63.8,33.4,29.79,NW,314,0.0,3.0,32,0.00,,,0.00,0,Wunderground v.1.15,2013-06-03 00:20:00,
2013-06-02 19:22:00,63.8,33.4,29.80,NW,314,0.0,1.0,32,0.00,,,0.00,0,Wunderground v.1.15,2013-06-03 00:22:00,
2013-06-02 19:23:00,63.9,34.2,29.80,NW,314,2.0,2.0,33,0.00,,,0.00,0,Wunderground v.1.15,2013-06-03 00:23:00,
2013-06-02 19:24:00,63.9,34.2,29.80,NW,314,0.0,3.0,33,0.00,,,0.00,0,Wunderground v.1.15,2013-06-03 00:24:00,
2013-06-02 19:25:00,63.8,34.1,29.80,NW,314,1.0,3.0,33,0.00,,,0.00,0,Wunderground v.1.15,2013-06-03 00:25:00,
2013-06-02 19:27:00,63.7,34.8,29.79,NW,309,0.0,4.0,34,0.00,,,0.00,0,Wunderground v.1.15,2013-06-03 00:27:00,
2013-06-02 19:28:00,63.5,35.3,29.79,NW,309,0.0,4.0,35,0.00,,,0.00,0,Wunderground v.1.15,2013-06-03 00:28:00,
2013-06-02 19:29:00,63.5,35.3,29.80,NW,309,0.0,4.0,35,0.00,,,0.00,0,Wunderground v.1.15,2013-06-03 00:29:00,
2013-06-02 19:30:00,63.4,34.5,29.79,NW,309,1.0,1.0,34,0.00,,,0.00,0,Wunderground v.1.15,2013-06-03 00:30:00,
2013-06-02 19:32:00,63.3,35.2,29.80,NW,308,0.0,3.0,35,0.00,,,0.00,0,Wunderground v.1.15,2013-06-03 00:32:00,
2013-06-02 19:33:00,63.2,34.3,29.79,NW,308,1.0,3.0,34,0.00,,,0.00,0,Wunderground v.1.15,2013-06-03 00:33:00,
2013-06-02 19:34:00,63.1,34.3,29.80,NW,308,0.0,3.0,34,0.00,,,0.00,0,Wunderground v.1.15,2013-06-03 00:34:00,
2013-06-02 19:35:00,63.0,34.2,29.80,NW,308,1.0,3.0,34,0.00,,,0.00,0,Wunderground v.1.15,2013-06-03 00:35:00,
2013-06-02 19:38:00,62.7,33.9,29.79,NW,308,0.0,3.0,34,0.00,,,0.00,0,Wunderground v.1.15,2013-06-03 00:38:00,
2013-06-02 19:39:00,62.7,34.6,29.79,NW,308,0.0,3.0,35,0.00,,,0.00,0,Wunderground v.1.15,2013-06-03 00:39:00,
2013-06-02 19:40:00,62.6,34.5,29.80,NW,308,0.0,3.0,35,0.00,,,0.00,0,Wunderground v.1.15,2013-06-03 00:40:00,
2013-06-02 19:43:00,62.4,35.1,29.79,NW,308,0.0,3.0,36,0.00,,,0.00,0,Wunderground v.1.15,2013-06-03 00:43:00,
2013-06-02 19:44:00,62.4,35.1,29.79,NW,308,0.0,3.0,36,0.00,,,0.00,0,Wunderground v.1.15,2013-06-03 00:44:00,
2013-06-02 19:45:00,62.3,34.3,29.79,NW,308,0.0,3.0,35,0.00,,,0.00,0,Wunderground v.1.15,2013-06-03 00:45:00,
2013-06-02 19:46:00,62.3,34.3,29.79,NW,308,0.0,3.0,35,0.00,,,0.00,0,Wunderground v.1.15,2013-06-03 00:46:00,
2013-06-02 19:48:00,62.2,34.9,29.79,NW,308,1.0,3.0,36,0.00,,,0.00,0,Wunderground v.1.15,2013-06-03 00:48:00,
2013-06-02 19:49:00,62.1,34.1,29.79,NW,308,0.0,3.0,35,0.00,,,0.00,0,Wunderground v.1.15,2013-06-03 00:49:00,
2013-06-02 19:50:00,62.1,34.8,29.79,NW,308,0.0,3.0,36,0.00,,,0.00,0,Wunderground v.1.15,2013-06-03 00:50:00,
2013-06-02 19:51:00,62.0,34.7,29.79,NW,308,0.0,1.0,36,0.00,,,0.00,0,Wunderground v.1.15,2013-06-03 00:51:00,
2013-06-02 19:53:00,61.8,33.8,29.80,NW,308,0.0,1.0,35,0.00,,,0.00,0,Wunderground v.1.15,2013-06-03 00:53:00,
2013-06-02 19:54:00,61.8,34.5,29.80,NW,308,2.0,3.0,36,0.00,,,0.00,0,Wunderground v.1.15,2013-06-03 00:54:00,
2013-06-02 19:55:00,61.7,34.5,29.80,NW,308,1.0,3.0,36,0.00,,,0.00,0,Wunderground v.1.15,2013-06-03 00:55:00,
2013-06-02 19:56:00,61.6,33.7,29.80,NW,308,0.0,4.0,35,0.00,,,0.00,0,Wunderground v.1.15,2013-06-03 00:56:00,
2013-06-02 19:58:00,61.3,33.4,29.80,NW,308,0.0,4.0,35,0.00,,,0.00,0,Wunderground v.1.15,2013-06-03 00:58:00,
2013-06-02 19:59:00,61.3,33.4,29.80,NW,308,0.0,4.0,35,0.00,,,0.00,0,Wunderground v.1.15,2013-06-03 00:59:00,
2013-06-02 20:00:00,61.2,34.0,29.80,NW,308,0.0,4.0,36,0.00,,,0.00,0,Wunderground v.1.15,2013-06-03 01:00:00,
2013-06-02 20:01:00,61.1,34.6,29.80,NW,308,1.0,2.0,37,0.00,,,0.00,0,Wunderground v.1.15,2013-06-03 01:01:00,
2013-06-02 20:03:00,61.0,34.5,29.80,NW,308,0.0,2.0,37,0.00,,,0.00,0,Wunderground v.1.15,2013-06-03 01:03:00,
2013-06-02 20:04:00,61.0,33.8,29.80,NW,308,0.0,2.0,36,0.00,,,0.00,0,Wunderground v.1.15,2013-06-03 01:04:00,
2013-06-02 20:05:00,60.9,35.1,29.80,NW,308,0.0,2.0,38,0.00,,,0.00,0,Wunderground v.1.15,2013-06-03 01:05:00,
2013-06-02 20:06:00,60.9,35.1,29.80,NW,308,0.0,2.0,38,0.00,,,0.00,0,Wunderground v.1.15,2013-06-03 01:06:00,
2013-06-02 20:07:00,60.8,35.0,29.80,NW,308,0.0,2.0,38,0.00,,,0.00,0,Wunderground v.1.15,2013-06-03 01:07:00,
2013-06-02 20:08:00,60.8,35.0,29.80,NW,308,0.0,2.0,38,0.00,,,0.00,0,Wunderground v.1.15,2013-06-03 01:08:00,
2013-06-02 20:09:00,60.7,34.3,29.80,NW,308,0.0,2.0,37,0.00,,,0.00,0,Wunderground v.1.15,2013-06-03 01:09:00,
2013-06-02 20:10:00,60.7,34.9,29.80,NW,308,0.0,0.0,38,0.00,,,0.00,0,Wunderground v.1.15,2013-06-03 01:10:00,
2013-06-02 20:11:00,60.7,34.3,29.80,NW,308,0.0,0.0,37,0.00,,,0.00,0,Wunderground v.1.15,2013-06-03 01:11:00,
2013-06-02 20:12:00,60.7,34.9,29.79,NW,308,0.0,0.0,38,0.00,,,0.00,0,Wunderground v.1.15,2013-06-03 01:12:00,
2013-06-02 20:13:00,60.6,34.2,29.80,NW,308,0.0,2.0,37,0.00,,,0.00,0,Wunderground v.1.15,2013-06-03 01:13:00,
2013-06-02 20:14:00,60.6,34.8,29.80,NW,308,0.0,2.0,38,0.00,,,0.00,0,Wunderground v.1.15,2013-06-03 01:14:00,
2013-06-02 20:15:00,60.6,34.8,29.80,NW,308,0.0,2.0,38,0.00,,,0.00,0,Wunderground v.1.15,2013-06-03 01:15:00,
2013-06-02 20:16:00,60.6,34.8,29.80,NW,308,0.0,2.0,38,0.00,,,0.00,0,Wunderground v.1.15,2013-06-03 01:16:00,
2013-06-02 20:17:00,60.4,34.7,29.79,NW,308,0.0,2.0,38,0.00,,,0.00,0,Wunderground v.1.15,2013-06-03 01:17:00,
2013-06-02 20:18:00,60.3,34.6,29.80,NW,308,1.0,2.0,38,0.00,,,0.00,0,Wunderground v.1.15,2013-06-03 01:18:00,
2013-06-02 20:19:00,60.3,34.6,29.80,NW,308,0.0,2.0,38,0.00,,,0.00,0,Wunderground v.1.15,2013-06-03 01:19:00,
2013-06-02 20:20:00,60.3,34.6,29.80,NW,308,0.0,0.0,38,0.00,,,0.00,0,Wunderground v.1.15,2013-06-03 01:20:00,
2013-06-02 20:21:00,60.2,34.5,29.79,NW,308,0.0,0.0,38,0.00,,,0.00,0,Wunderground v.1.15,2013-06-03 01:21:00,
2013-06-02 20:22:00,60.2,34.5,29.80,NW,308,0.0,0.0,38,0.00,,,0.00,0,Wunderground v.1.15,2013-06-03 01:22:00,
2013-06-02 20:24:00,60.2,34.5,29.80,NW,308,0.0,0.0,38,0.00,,,0.00,0,Wunderground v.1.15,2013-06-03 01:24:00,
2013-06-02 20:25:00,60.1,34.4,29.80,NW,308,0.0,0.0,38,0.00,,,0.00,0,Wunderground v.1.15,2013-06-03 01:25:00,
2013-06-02 20:26:00,60.1,35.0,29.79,NW,308,0.0,0.0,39,0.00,,,0.00,0,Wunderground v.1.15,2013-06-03 01:26:00,
2013-06-02 20:27:00,60.0,35.0,29.80,NW,308,0.0,0.0,39,0.00,,,0.00,0,Wunderground v.1.15,2013-06-03 01:27:00,
2013-06-02 20:29:00,60.0,35.6,29.79,NW,308,0.0,0.0,40,0.00,,,0.00,0,Wunderground v.1.15,2013-06-03 01:29:00,
2013-06-02 20:31:00,59.8,36.0,29.80,NW,308,0.0,0.0,41,0.00,,,0.00,0,Wunderground v.1.15,2013-06-03 01:31:00,
2013-06-02 20:32:00,59.6,35.9,29.79,NW,308,0.0,0.0,41,0.00,,,0.00,0,Wunderground v.1.15,2013-06-03 01:32:00,
2013-06-02 20:34:00,59.4,35.7,29.80,NW,308,0.0,0.0,41,0.00,,,0.00,0,Wunderground v.1.15,2013-06-03 01:34:00,
2013-06-02 20:35:00,59.4,35.7,29.79,NW,308,0.0,0.0,41,0.00,,,0.00,0,Wunderground v.1.15,2013-06-03 01:35:00,
2013-06-02 20:36:00,59.3,36.2,29.80,NW,308,0.0,0.0,42,0.00,,,0.00,0,Wunderground v.1.15,2013-06-03 01:36:00,
2013-06-02 20:38:00,59.1,36.0,29.80,NW,308,0.0,0.0,42,0.00,,,0.00,0,Wunderground v.1.15,2013-06-03 01:38:00,
2013-06-02 20:39:00,59.0,36.5,29.79,NW,308,0.0,0.0,43,0.00,,,0.00,0,Wunderground v.1.15,2013-06-03 01:39:00,
2013-06-02 20:40:00,58.9,36.4,29.80,NW,308,0.0,0.0,43,0.00,,,0.00,0,Wunderground v.1.15,2013-06-03 01:40:00,
2013-06-02 20:41:00,58.7,36.2,29.80,NW,308,0.0,0.0,43,0.00,,,0.00,0,Wunderground v.1.15,2013-06-03 01:41:00,
2013-06-02 20:43:00,58.5,36.1,29.79,NW,308,0.0,0.0,43,0.00,,,0.00,0,Wunderground v.1.15,2013-06-03 01:43:00,
2013-06-02 20:44:00,58.4,36.6,29.80,NW,308,0.0,0.0,44,0.00,,,0.00,0,Wunderground v.1.15,2013-06-03 01:44:00,
2013-06-02 20:45:00,58.3,36.5,29.79,NW,308,0.0,0.0,44,0.00,,,0.00,0,Wunderground v.1.15,2013-06-03 01:45:00,
2013-06-02 20:47:00,58.2,36.9,29.79,NW,308,0.0,0.0,45,0.00,,,0.00,0,Wunderground v.1.15,2013-06-03 01:47:00,
2013-06-02 20:48:00,58.1,37.4,29.79,NW,308,0.0,0.0,46,0.00,,,0.00,0,Wunderground v.1.15,2013-06-03 01:48:00,
2013-06-02 20:49:00,57.9,37.2,29.80,NW,308,0.0,0.0,46,0.00,,,0.00,0,Wunderground v.1.15,2013-06-03 01:49:00,
2013-06-02 20:50:00,57.9,37.8,29.79,NW,308,0.0,0.0,47,0.00,,,0.00,0,Wunderground v.1.15,2013-06-03 01:50:00,
2013-06-02 20:52:00,57.6,37.5,29.79,NW,308,0.0,0.0,47,0.00,,,0.00,0,Wunderground v.1.15,2013-06-03 01:52:00,
2013-06-02 20:53:00,57.5,37.9,29.79,NW,308,0.0,0.0,48,0.00,,,0.00,0,Wunderground v.1.15,2013-06-03 01:53:00,
2013-06-02 20:54:00,57.3,37.8,29.79,NW,308,0.0,0.0,48,0.00,,,0.00,0,Wunderground v.1.15,2013-06-03 01:54:00,
2013-06-02 20:55:00,57.2,37.7,29.79,NW,308,0.0,0.0,48,0.00,,,0.00,0,Wunderground v.1.15,2013-06-03 01:55:00,
2013-06-02 20:57:00,57.0,38.5,29.80,NW,308,0.0,0.0,50,0.00,,,0.00,0,Wunderground v.1.15,2013-06-03 01:57:00,
2013-06-02 20:58:00,56.8,38.9,29.80,NW,308,0.0,0.0,51,0.00,,,0.00,0,Wunderground v.1.15,2013-06-03 01:58:00,
2013-06-02 20:59:00,56.6,39.2,29.79,NW,308,0.0,0.0,52,0.00,,,0.00,0,Wunderground v.1.15,2013-06-03 01:59:00,
2013-06-02 21:00:00,56.5,39.1,29.79,NW,308,0.0,0.0,52,0.00,,,0.00,0,Wunderground v.1.15,2013-06-03 02:00:00,
2013-06-02 21:02:00,56.3,38.9,29.79,NW,308,0.0,0.0,52,0.00,,,0.00,0,Wunderground v.1.15,2013-06-03 02:02:00,
2013-06-02 21:03:00,56.1,38.7,29.79,NW,308,0.0,0.0,52,0.00,,,0.00,0,Wunderground v.1.15,2013-06-03 02:03:00,
2013-06-02 21:04:00,55.9,39.0,29.79,NW,308,0.0,0.0,53,0.00,,,0.00,0,Wunderground v.1.15,2013-06-03 02:04:00,
2013-06-02 21:05:00,55.8,38.9,29.80,NW,308,0.0,0.0,53,0.00,,,0.00,0,Wunderground v.1.15,2013-06-03 02:05:00,
2013-06-02 21:07:00,55.5,39.1,29.79,NW,308,0.0,0.0,54,0.00,,,0.00,0,Wunderground v.1.15,2013-06-03 02:07:00,
2013-06-02 21:08:00,55.4,39.0,29.79,NW,308,0.0,0.0,54,0.00,,,0.00,0,Wunderground v.1.15,2013-06-03 02:08:00,
2013-06-02 21:09:00,55.1,38.7,29.80,NW,308,0.0,0.0,54,0.00,,,0.00,0,Wunderground v.1.15,2013-06-03 02:09:00,
2013-06-02 21:10:00,55.0,39.1,29.79,NW,308,0.0,0.0,55,0.00,,,0.00,0,Wunderground v.1.15,2013-06-03 02:10:00,
2013-06-02 21:12:00,54.8,38.9,29.80,NW,308,0.0,0.0,55,0.00,,,0.00,0,Wunderground v.1.15,2013-06-03 02:12:00,
2013-06-02 21:13:00,54.6,38.7,29.80,NW,308,0.0,0.0,55,0.00,,,0.00,0,Wunderground v.1.15,2013-06-03 02:13:00,
2013-06-02 21:14:00,54.5,38.7,29.80,NW,308,0.0,0.0,55,0.00,,,0.00,0,Wunderground v.1.15,2013-06-03 02:14:00,
2013-06-02 21:15:00,54.4,39.0,29.80,NW,308,0.0,0.0,56,0.00,,,0.00,0,Wunderground v.1.15,2013-06-03 02:15:00,
2013-06-02 21:17:00,54.2,38.8,29.80,NW,308,0.0,0.0,56,0.00,,,0.00,0,Wunderground v.1.15,2013-06-03 02:17:00,
2013-06-02 21:19:00,54.1,38.7,29.80,NW,308,0.0,0.0,56,0.00,,,0.00,0,Wunderground v.1.15,2013-06-03 02:19:00,
2013-06-02 21:20:00,53.9,38.6,29.80,NW,308,0.0,0.0,56,0.00,,,0.00,0,Wunderground v.1.15,2013-06-03 02:20:00,
2013-06-02 21:22:00,53.8,38.9,29.80,NW,308,0.0,0.0,57,0.00,,,0.00,0,Wunderground v.1.15,2013-06-03 02:22:00,
2013-06-02 21:24:00,53.6,38.7,29.80,NW,308,0.0,0.0,57,0.00,,,0.00,0,Wunderground v.1.15,2013-06-03 02:24:00,
2013-06-02 21:25:00,53.5,39.1,29.80,NW,308,0.0,0.0,58,0.00,,,0.00,0,Wunderground v.1.15,2013-06-03 02:25:00,
2013-06-02 21:27:00,53.4,39.0,29.80,NW,308,0.0,0.0,58,0.00,,,0.00,0,Wunderground v.1.15,2013-06-03 02:27:00,
2013-06-02 21:29:00,53.2,39.2,29.80,NW,308,0.0,0.0,59,0.00,,,0.00,0,Wunderground v.1.15,2013-06-03 02:29:00,
2013-06-02 21:30:00,53.1,39.6,29.80,NW,308,0.0,0.0,60,0.00,,,0.00,0,Wunderground v.1.15,2013-06-03 02:30:00,
2013-06-02 21:32:00,52.9,39.4,29.80,NW,308,0.0,0.0,60,0.00,,,0.00,0,Wunderground v.1.15,2013-06-03 02:32:00,
2013-06-02 21:33:00,52.9,39.4,29.80,NW,308,0.0,0.0,60,0.00,,,0.00,0,Wunderground v.1.15,2013-06-03 02:33:00,
2013-06-02 21:34:00,52.7,39.6,29.80,NW,308,0.0,0.0,61,0.00,,,0.00,0,Wunderground v.1.15,2013-06-03 02:34:00,
2013-06-02 21:35:00,52.6,39.5,29.80,NW,308,0.0,0.0,61,0.00,,,0.00,0,Wunderground v.1.15,2013-06-03 02:35:00,
2013-06-02 21:36:00,52.6,39.5,29.80,NW,308,0.0,0.0,61,0.00,,,0.00,0,Wunderground v.1.15,2013-06-03 02:36:00,
2013-06-02 21:37:00,52.5,39.8,29.80,NW,308,0.0,0.0,62,0.00,,,0.00,0,Wunderground v.1.15,2013-06-03 02:37:00,
2013-06-02 21:38:00,52.4,39.8,29.80,NW,308,0.0,0.0,62,0.00,,,0.00,0,Wunderground v.1.15,2013-06-03 02:38:00,
2013-06-02 21:39:00,52.2,39.6,29.80,NW,308,0.0,0.0,62,0.00,,,0.00,0,Wunderground v.1.15,2013-06-03 02:39:00,
2013-06-02 21:40:00,52.2,39.6,29.80,NW,308,0.0,0.0,62,0.00,,,0.00,0,Wunderground v.1.15,2013-06-03 02:40:00,
2013-06-02 21:41:00,52.1,39.5,29.80,NW,308,0.0,0.0,62,0.00,,,0.00,0,Wunderground v.1.15,2013-06-03 02:41:00,
2013-06-02 21:42:00,52.0,39.8,29.80,NW,308,0.0,0.0,63,0.00,,,0.00,0,Wunderground v.1.15,2013-06-03 02:42:00,
2013-06-02 21:43:00,51.9,39.7,29.80,NW,308,0.0,0.0,63,0.00,,,0.00,0,Wunderground v.1.15,2013-06-03 02:43:00,
2013-06-02 21:44:00,51.9,39.7,29.80,NW,308,0.0,0.0,63,0.00,,,0.00,0,Wunderground v.1.15,2013-06-03 02:44:00,
2013-06-02 21:46:00,51.7,39.5,29.80,NW,308,0.0,0.0,63,0.00,,,0.00,0,Wunderground v.1.15,2013-06-03 02:46:00,
2013-06-02 21:47:00,51.6,39.4,29.81,NW,308,0.0,0.0,63,0.00,,,0.00,0,Wunderground v.1.15,2013-06-03 02:47:00,
2013-06-02 21:48:00,51.5,39.3,29.80,NW,308,0.0,0.0,63,0.00,,,0.00,0,Wunderground v.1.15,2013-06-03 02:48:00,
2013-06-02 21:49:00,51.5,39.3,29.80,NW,308,0.0,0.0,63,0.00,,,0.00,0,Wunderground v.1.15,2013-06-03 02:49:00,
2013-06-02 21:51:00,51.3,39.5,29.80,NW,308,0.0,0.0,64,0.00,,,0.00,0,Wunderground v.1.15,2013-06-03 02:51:00,
2013-06-02 21:52:00,51.2,39.4,29.80,NW,308,0.0,0.0,64,0.00,,,0.00,0,Wunderground v.1.15,2013-06-03 02:52:00,
2013-06-02 21:53:00,51.2,39.8,29.81,NW,308,0.0,0.0,65,0.00,,,0.00,0,Wunderground v.1.15,2013-06-03 02:53:00,
2013-06-02 21:54:00,51.1,39.7,29.81,NW,308,0.0,0.0,65,0.00,,,0.00,0,Wunderground v.1.15,2013-06-03 02:54:00,
2013-06-02 21:56:00,51.0,39.6,29.81,NW,308,0.0,0.0,65,0.00,,,0.00,0,Wunderground v.1.15,2013-06-03 02:56:00,
2013-06-02 21:57:00,50.9,39.5,29.80,NW,308,0.0,0.0,65,0.00,,,0.00,0,Wunderground v.1.15,2013-06-03 02:57:00,
2013-06-02 21:58:00,50.8,39.5,29.81,NW,308,0.0,0.0,65,0.00,,,0.00,0,Wunderground v.1.15,2013-06-03 02:58:00,
2013-06-02 21:59:00,50.8,39.5,29.81,NW,308,0.0,0.0,65,0.00,,,0.00,0,Wunderground v.1.15,2013-06-03 02:59:00,
2013-06-02 22:02:00,50.6,39.7,29.80,NW,308,0.0,0.0,66,0.00,,,0.00,0,Wunderground v.1.15,2013-06-03 03:02:00,
2013-06-02 22:03:00,50.6,39.7,29.80,NW,308,0.0,0.0,66,0.00,,,0.00,0,Wunderground v.1.15,2013-06-03 03:03:00,
2013-06-02 22:04:00,50.5,39.6,29.81,NW,308,0.0,0.0,66,0.00,,,0.00,0,Wunderground v.1.15,2013-06-03 03:04:00,
2013-06-02 22:07:00,50.5,39.9,29.81,NW,308,0.0,0.0,67,0.00,,,0.00,0,Wunderground v.1.15,2013-06-03 03:07:00,
2013-06-02 22:08:00,50.4,40.2,29.81,NW,308,0.0,0.0,68,0.00,,,0.00,0,Wunderground v.1.15,2013-06-03 03:08:00,
2013-06-02 22:09:00,50.4,40.2,29.81,NW,308,0.0,0.0,68,0.00,,,0.00,0,Wunderground v.1.15,2013-06-03 03:09:00,
2013-06-02 22:12:00,50.2,40.4,29.81,NW,308,0.0,0.0,69,0.00,,,0.00,0,Wunderground v.1.15,2013-06-03 03:12:00,
2013-06-02 22:13:00,50.2,40.4,29.81,NW,308,0.0,0.0,69,0.00,,,0.00,0,Wunderground v.1.15,2013-06-03 03:13:00,
2013-06-02 22:14:00,50.1,40.3,29.81,NW,308,0.0,0.0,69,0.00,,,0.00,0,Wunderground v.1.15,2013-06-03 03:14:00,
2013-06-02 22:17:00,50.1,40.7,29.81,NW,308,0.0,0.0,70,0.00,,,0.00,0,Wunderground v.1.15,2013-06-03 03:17:00,
2013-06-02 22:18:00,50.0,40.6,29.81,NW,308,0.0,0.0,70,0.00,,,0.00,0,Wunderground v.1.15,2013-06-03 03:18:00,
2013-06-02 22:19:00,50.0,40.6,29.82,NW,308,0.0,0.0,70,0.00,,,0.00,0,Wunderground v.1.15,2013-06-03 03:19:00,
2013-06-02 22:22:00,49.8,40.8,29.82,NW,308,0.0,0.0,71,0.00,,,0.00,0,Wunderground v.1.15,2013-06-03 03:22:00,
2013-06-02 22:23:00,49.8,40.8,29.81,NW,308,0.0,0.0,71,0.00,,,0.00,0,Wunderground v.1.15,2013-06-03 03:23:00,
2013-06-02 22:24:00,49.8,40.8,29.81,NW,308,0.0,0.0,71,0.00,,,0.00,0,Wunderground v.1.15,2013-06-03 03:24:00,
2013-06-02 22:25:00,49.8,40.8,29.81,NW,308,0.0,0.0,71,0.00,,,0.00,0,Wunderground v.1.15,2013-06-03 03:25:00,
2013-06-02 22:27:00,49.6,40.6,29.81,NW,308,0.0,0.0,71,0.00,,,0.00,0,Wunderground v.1.15,2013-06-03 03:27:00,
2013-06-02 22:28:00,49.6,40.9,29.81,NW,308,0.0,0.0,72,0.00,,,0.00,0,Wunderground v.1.15,2013-06-03 03:28:00,
2013-06-02 22:29:00,49.6,40.9,29.81,NW,308,0.0,0.0,72,0.00,,,0.00,0,Wunderground v.1.15,2013-06-03 03:29:00,
2013-06-02 22:30:00,49.6,40.9,29.81,NW,308,0.0,0.0,72,0.00,,,0.00,0,Wunderground v.1.15,2013-06-03 03:30:00,
2013-06-02 22:32:00,49.4,41.1,29.81,NW,308,0.0,0.0,73,0.00,,,0.00,0,Wunderground v.1.15,2013-06-03 03:32:00,
2013-06-02 22:33:00,49.4,41.1,29.81,NW,308,0.0,0.0,73,0.00,,,0.00,0,Wunderground v.1.15,2013-06-03 03:33:00,
2013-06-02 22:34:00,49.3,41.4,29.81,NW,308,0.0,0.0,74,0.00,,,0.00,0,Wunderground v.1.15,2013-06-03 03:34:00,
2013-06-02 22:35:00,49.3,41.4,29.81,NW,308,0.0,0.0,74,0.00,,,0.00,0,Wunderground v.1.15,2013-06-03 03:35:00,
2013-06-02 22:37:00,49.2,41.3,29.82,NW,308,0.0,0.0,74,0.00,,,0.00,0,Wunderground v.1.15,2013-06-03 03:37:00,
2013-06-02 22:38:00,49.2,41.3,29.81,NW,308,0.0,0.0,74,0.00,,,0.00,0,Wunderground v.1.15,2013-06-03 03:38:00,
2013-06-02 22:39:00,49.2,41.6,29.82,NW,308,0.0,0.0,75,0.00,,,0.00,0,Wunderground v.1.15,2013-06-03 03:39:00,
2013-06-02 22:40:00,49.2,41.3,29.82,NW,308,0.0,0.0,74,0.00,,,0.00,0,Wunderground v.1.15,2013-06-03 03:40:00,
2013-06-02 22:42:00,49.1,41.5,29.81,NW,308,0.0,0.0,75,0.00,,,0.00,0,Wunderground v.1.15,2013-06-03 03:42:00,
2013-06-02 22:43:00,49.1,41.5,29.81,NW,308,0.0,0.0,75,0.00,,,0.00,0,Wunderground v.1.15,2013-06-03 03:43:00,
2013-06-02 22:45:00,49.0,41.4,29.81,NW,308,0.0,0.0,75,0.00,,,0.00,0,Wunderground v.1.15,2013-06-03 03:45:00,
2013-06-02 22:47:00,49.0,41.4,29.81,NW,308,0.0,0.0,75,0.00,,,0.00,0,Wunderground v.1.15,2013-06-03 03:47:00,
2013-06-02 22:48:00,49.0,41.4,29.81,NW,308,0.0,0.0,75,0.00,,,0.00,0,Wunderground v.1.15,2013-06-03 03:48:00,
2013-06-02 22:50:00,48.9,41.7,29.81,NW,308,0.0,0.0,76,0.00,,,0.00,0,Wunderground v.1.15,2013-06-03 03:50:00,
2013-06-02 22:52:00,48.9,41.7,29.81,NW,308,0.0,0.0,76,0.00,,,0.00,0,Wunderground v.1.15,2013-06-03 03:52:00,
2013-06-02 22:53:00,48.9,41.7,29.81,NW,308,0.0,0.0,76,0.00,,,0.00,0,Wunderground v.1.15,2013-06-03 03:53:00,
2013-06-02 22:55:00,48.9,42.0,29.81,NW,308,0.0,0.0,77,0.00,,,0.00,0,Wunderground v.1.15,2013-06-03 03:55:00,
2013-06-02 22:57:00,48.8,41.9,29.81,NW,308,0.0,0.0,77,0.00,,,0.00,0,Wunderground v.1.15,2013-06-03 03:57:00,
2013-06-02 22:58:00,48.8,41.9,29.82,NW,308,0.0,0.0,77,0.00,,,0.00,0,Wunderground v.1.15,2013-06-03 03:58:00,
2013-06-02 23:00:00,48.7,41.8,29.82,NW,308,0.0,0.0,77,0.00,,,0.00,0,Wunderground v.1.15,2013-06-03 04:00:00,
2013-06-02 23:01:00,48.7,41.8,29.81,NW,308,0.0,0.0,77,0.00,,,0.00,0,Wunderground v.1.15,2013-06-03 04:01:00,
2013-06-02 23:02:00,48.7,41.8,29.81,NW,308,0.0,0.0,77,0.00,,,0.00,0,Wunderground v.1.15,2013-06-03 04:02:00,
2013-06-02 23:06:00,48.6,42.0,29.81,NW,308,0.0,0.0,78,0.00,,,0.00,0,Wunderground v.1.15,2013-06-03 04:06:00,
2013-06-02 23:07:00,48.5,42.0,29.81,NW,308,0.0,0.0,78,0.00,,,0.00,0,Wunderground v.1.15,2013-06-03 04:07:00,
2013-06-02 23:11:00,48.4,42.2,29.81,NW,308,0.0,0.0,79,0.00,,,0.00,0,Wunderground v.1.15,2013-06-03 04:11:00,
2013-06-02 23:12:00,48.4,42.2,29.82,NW,308,0.0,0.0,79,0.00,,,0.00,0,Wunderground v.1.15,2013-06-03 04:12:00,
2013-06-02 23:16:00,48.2,42.3,29.81,NW,308,0.0,0.0,80,0.00,,,0.00,0,Wunderground v.1.15,2013-06-03 04:16:00,
2013-06-02 23:17:00,48.2,42.3,29.81,NW,308,0.0,0.0,80,0.00,,,0.00,0,Wunderground v.1.15,2013-06-03 04:17:00,
2013-06-02 23:21:00,48.2,42.6,29.81,NW,308,0.0,0.0,81,0.00,,,0.00,0,Wunderground v.1.15,2013-06-03 04:21:00,
2013-06-02 23:22:00,48.1,42.5,29.81,NW,308,0.0,0.0,81,0.00,,,0.00,0,Wunderground v.1.15,2013-06-03 04:22:00,
2013-06-02 23:26:00,48.1,42.5,29.81,NW,308,0.0,0.0,81,0.00,,,0.00,0,Wunderground v.1.15,2013-06-03 04:26:00,
2013-06-02 23:27:00,48.1,42.9,29.82,NW,308,0.0,0.0,82,0.00,,,0.00,0,Wunderground v.1.15,2013-06-03 04:27:00,
2013-06-02 23:32:00,48.0,43.1,29.82,NW,308,0.0,0.0,83,0.00,,,0.00,0,Wunderground v.1.15,2013-06-03 04:32:00,
2013-06-02 23:33:00,48.0,43.1,29.82,NW,308,0.0,0.0,83,0.00,,,0.00,0,Wunderground v.1.15,2013-06-03 04:33:00,
2013-06-02 23:37:00,47.9,43.3,29.81,NW,308,0.0,0.0,84,0.00,,,0.00,0,Wunderground v.1.15,2013-06-03 04:37:00,
2013-06-02 23:38:00,47.9,43.3,29.81,NW,308,0.0,0.0,84,0.00,,,0.00,0,Wunderground v.1.15,2013-06-03 04:38:00,
2013-06-02 23:42:00,47.8,43.8,29.81,NW,308,0.0,0.0,86,0.00,,,0.00,0,Wunderground v.1.15,2013-06-03 04:42:00,
2013-06-02 23:43:00,47.8,43.8,29.81,NW,308,0.0,0.0,86,0.00,,,0.00,0,Wunderground v.1.15,2013-06-03 04:43:00,
2013-06-02 23:47:00,47.7,44.0,29.81,NW,308,0.0,0.0,87,0.00,,,0.00,0,Wunderground v.1.15,2013-06-03 04:47:00,
2013-06-02 23:48:00,47.7,44.0,29.81,NW,308,0.0,0.0,87,0.00,,,0.00,0,Wunderground v.1.15,2013-06-03 04:48:00,
2013-06-02 23:52:00,47.6,44.2,29.81,NW,308,0.0,0.0,88,0.00,,,0.00,0,Wunderground v.1.15,2013-06-03 04:52:00,
2013-06-02 23:53:00,47.5,44.1,29.81,NW,308,0.0,0.0,88,0.00,,,0.00,0,Wunderground v.1.15,2013-06-03 04:53:00,
2013-06-02 23:57:00,47.3,43.9,29.82,NW,308,0.0,0.0,88,0.00,,,0.00,0,Wunderground v.1.15,2013-06-03 04:57:00,
2013-06-02 23:58:00,47.3,43.9,29.82,NW,308,0.0,0.0,88,0.00,,,0.00,0,Wunderground v.1.15,2013-06-03 04:58:00,